FW2979 Weather Reports


time (UTC)temp
F
wind
direction
speed
knots
gust
knots
rain 1hr
in
rain 24hr
in
rain mn
in
humidity
%
barometer
mb
20200531064840 34 271 12.2 16.5 0.00 0.00 0.00 93 846.1
20200531064740 34 264 21.7 23.5 0.00 0.00 0.00 93 845.9
20200531064640 34 258 17.4 21.7 0.00 0.00 0.00 94 846.1
20200531064540 34 284 14.8 19.1 0.00 0.00 0.00 94 846.1
20200531064440 34 215 7.0 9.6 0.00 0.00 0.00 94 846.3
20200531064340 34 231 11.3 13.9 0.00 0.00 0.00 93 846.2
20200531064240 34 258 16.5 18.2 0.00 0.00 0.00 94 846.1
20200531064140 34 253 20.0 21.7 0.00 0.00 0.00 94 845.9
20200531064040 34 240 13.0 13.9 0.00 0.00 0.00 94 846.2
20200531063940 34 273 13.9 17.4 0.00 0.00 0.00 94 846.1
20200531063840 34 243 10.4 11.3 0.00 0.00 0.00 94 846.2
20200531063740 34 272 15.6 22.6 0.00 0.00 0.00 94 846.1
20200531063640 34 252 7.8 10.4 0.00 0.00 0.00 93 846.3
20200531063540 34 239 13.0 15.6 0.00 0.00 0.00 94 846.1
20200531063440 34 260 20.0 21.7 0.00 0.00 0.00 95 846.1
20200531063340 34 247 13.0 13.0 0.00 0.00 0.00 94 846.2
20200531063240 34 250 11.3 13.0 0.00 0.00 0.00 94 846.2
20200531063140 34 260 21.7 23.5 0.00 0.00 0.00 94 845.8
20200531063041 34 247 21.7 23.5 0.00 0.00 0.00 95 845.9
20200531062940 34 247 15.6 20.0 0.00 0.00 0.00 95 846.1
20200531062840 34 258 14.8 17.4 0.00 0.00 0.00 95 846.1
20200531062740 34 258 13.9 16.5 0.00 0.00 0.00 95 846.1
20200531062640 34 286 19.1 21.7 0.00 0.00 0.00 95 846.1
20200531062540 34 213 14.8 17.4 0.00 0.00 0.00 95 845.9
20200531062440 34 264 21.7 23.5 0.00 0.00 0.00 95 845.7
20200531062340 34 259 22.6 24.3 0.00 0.00 0.00 95 845.7
20200531062240 34 242 16.5 19.1 0.00 0.00 0.00 95 846.1
20200531062140 34 270 13.9 18.2 0.00 0.00 0.00 95 845.8
20200531062040 34 281 14.8 16.5 0.00 0.00 0.00 94 846.1
20200531061940 34 245 10.4 11.3 0.00 0.00 0.00 94 846.2
20200531061840 34 255 17.4 21.7 0.00 0.00 0.00 95 846.1
20200531061740 33 226 7.8 9.6 0.00 0.00 0.00 95 846.1
20200531061640 33 267 10.4 12.2 0.00 0.00 0.00 95 846.1
20200531061540 33 236 18.2 20.9 0.00 0.00 0.00 95 845.9
20200531061440 33 264 13.0 15.6 0.00 0.00 0.00 95 846.1
20200531061340 33 263 13.0 14.8 0.00 0.00 0.00 95 846.1
20200531061240 33 260 14.8 17.4 0.00 0.00 0.00 95 846.1
20200531061140 33 244 20.9 22.6 0.00 0.00 0.00 95 845.7
20200531061040 33 268 13.9 19.1 0.00 0.00 0.00 95 845.8
20200531060940 33 261 17.4 24.3 0.00 0.00 0.00 94 845.9
20200531060840 33 246 16.5 23.5 0.00 0.00 0.00 94 845.7
20200531060740 33 270 19.1 21.7 0.00 0.00 0.00 95 845.7
20200531060640 33 250 8.7 11.3 0.00 0.00 0.00 95 846.1
20200531060540 33 265 20.0 24.3 0.00 0.00 0.00 95 845.7
20200531060440 33 216 12.2 13.9 0.00 0.00 0.00 95 846.1
20200531060340 33 245 22.6 23.5 0.00 0.00 0.00 95 845.8
20200531060240 33 233 10.4 12.2 0.00 0.00 0.00 95 846.1
20200531060040 33 234 21.7 24.3 0.00 0.00 0.00 96 845.7
20200531055940 33 244 14.8 16.5 0.00 0.00 0.00 95 845.9
20200531055840 33 256 18.2 19.1 0.00 0.00 0.00 95 845.9
20200531055740 33 265 22.6 26.9 0.00 0.00 0.00 96 845.7
20200531055640 33 252 18.2 20.0 0.00 0.00 0.00 96 845.8
20200531055540 33 255 16.5 18.2 0.00 0.00 0.00 96 845.9
20200531055440 33 277 12.2 16.5 0.00 0.00 0.00 96 846.1
20200531055340 33 262 18.2 19.1 0.00 0.00 0.00 96 845.9
20200531055240 33 258 12.2 17.4 0.00 0.00 0.00 96 846.1
20200531055140 33 244 12.2 13.9 0.00 0.00 0.00 96 846.1
20200531055040 33 278 15.6 18.2 0.00 0.00 0.00 96 846.1
20200531054940 33 209 8.7 11.3 0.00 0.00 0.00 96 846.1
20200531054843 33 252 14.8 16.5 0.00 0.00 0.00 96 845.8
20200531054740 33 256 12.2 14.8 0.00 0.00 0.00 97 846.1
20200531054640 33 227 11.3 16.5 0.00 0.00 0.00 97 845.9
20200531054540 33 226 8.7 9.6 0.00 0.00 0.00 97 846.1
20200531054440 33 299 5.2 7.0 0.00 0.00 0.00 97 846.1
20200531054340 33 239 7.8 13.0 0.00 0.00 0.00 97 846.1
20200531054240 33 221 10.4 12.2 0.00 0.00 0.00 97 846.1
20200531054140 33 221 8.7 13.0 0.00 0.00 0.00 97 846.1
20200531054041 33 238 14.8 16.5 0.00 0.00 0.00 96 845.9
20200531053940 33 256 13.0 16.5 0.00 0.00 0.00 96 845.9
20200531053840 33 265 10.4 13.9 0.00 0.00 0.00 96 845.9
20200531053740 33 269 15.6 21.7 0.00 0.00 0.00 96 845.7
20200531053640 33 266 14.8 19.1 0.00 0.00 0.00 96 845.8
20200531053540 33 248 15.6 17.4 0.00 0.00 0.00 96 845.8
20200531053440 33 265 16.5 19.1 0.00 0.00 0.00 96 845.7
20200531053340 33 254 20.9 24.3 0.00 0.00 0.00 96 845.3
20200531053240 33 248 22.6 24.3 0.00 0.00 0.00 96 845.5
20200531053140 33 279 15.6 27.8 0.00 0.00 0.00 96 845.3
20200531053040 33 287 17.4 19.1 0.00 0.00 0.00 96 845.8
20200531052940 33 245 10.4 13.9 0.00 0.00 0.00 96 845.8
20200531052840 33 256 14.8 19.1 0.00 0.00 0.00 96 845.7
20200531052740 33 261 13.0 16.5 0.00 0.00 0.00 96 845.8
20200531052640 33 278 22.6 27.8 0.00 0.00 0.00 96 845.7
20200531052540 33 257 21.7 26.9 0.00 0.00 0.00 96 845.3
20200531052440 33 247 20.0 21.7 0.00 0.00 0.00 96 845.7
20200531052340 33 252 19.1 21.7 0.00 0.00 0.00 96 845.7
20200531052240 33 248 17.4 20.9 0.00 0.00 0.00 96 845.7
20200531052140 33 246 22.6 23.5 0.00 0.00 0.00 96 845.5
20200531052040 33 228 17.4 21.7 0.00 0.00 0.00 96 845.7
20200531051940 33 278 16.5 23.5 0.00 0.00 0.00 96 845.4
20200531051840 33 228 11.3 15.6 0.00 0.00 0.00 96 845.7
20200531051740 33 264 25.2 27.8 0.00 0.00 0.00 96 845.4
20200531051640 33 279 10.4 13.0 0.00 0.00 0.00 96 845.8
20200531051540 33 244 19.1 20.9 0.00 0.00 0.00 96 845.5
20200531051440 33 242 16.5 18.2 0.00 0.00 0.00 96 845.7
20200531051340 33 204 5.2 7.0 0.00 0.00 0.00 96 845.8
20200531051240 33 270 24.3 28.7 0.00 0.00 0.00 96 845.1
20200531051140 33 245 17.4 21.7 0.00 0.00 0.00 96 845.5
20200531051040 33 255 23.5 26.9 0.00 0.00 0.00 97 845.4
20200531050940 33 256 26.9 28.7 0.00 0.00 0.00 97 845.3
20200531050840 33 245 24.3 26.9 0.00 0.00 0.00 97 845.4
20200531050740 33 271 20.0 24.3 0.00 0.00 0.00 97 845.4
20200531050640 33 271 20.9 24.3 0.00 0.00 0.00 97 845.3
20200531050540 33 259 16.5 18.2 0.00 0.00 0.00 97 845.7
20200531050440 33 229 18.2 21.7 0.00 0.00 0.00 97 845.5
20200531050340 33 254 15.6 16.5 0.00 0.00 0.00 97 845.7
20200531050240 33 260 8.7 10.4 0.00 0.00 0.00 97 845.9
20200531050140 33 245 17.4 22.6 0.00 0.00 0.00 97 845.7
20200531050040 33 251 18.2 20.9 0.00 0.00 0.00 97 845.7
20200531045940 33 267 16.5 24.3 0.00 0.00 0.00 97 845.7
20200531045840 33 254 20.0 23.5 0.00 0.00 0.00 98 845.5
20200531045740 33 245 13.0 17.4 0.00 0.00 0.00 98 845.8
20200531045640 33 243 21.7 24.3 0.00 0.00 0.00 98 845.5
20200531045540 33 281 16.5 25.2 0.00 0.00 0.00 98 845.5
20200531045440 33 295 12.2 15.6 0.00 0.00 0.00 98 845.8
20200531045340 33 205 17.4 19.1 0.00 0.00 0.00 98 845.7
20200531045240 33 203 10.4 13.9 0.00 0.00 0.00 98 845.8
20200531045140 33 281 18.2 23.5 0.00 0.00 0.00 98 845.4
20200531045040 33 263 13.9 23.5 0.00 0.00 0.00 98 845.3
20200531044940 33 262 11.3 15.6 0.00 0.00 0.00 98 845.8
20200531044840 32 259 12.2 14.8 0.00 0.00 0.00 98 845.8
20200531044740 32 235 16.5 18.2 0.00 0.00 0.00 98 845.7
20200531044640 33 266 24.3 30.4 0.00 0.00 0.00 98 845.3
20200531044540 33 241 20.9 23.5 0.00 0.00 0.00 98 845.5
20200531044440 33 265 17.4 19.1 0.00 0.00 0.00 98 845.7
20200531044340 33 265 14.8 19.1 0.00 0.00 0.00 98 845.7
20200531044240 33 248 17.4 21.7 0.00 0.00 0.00 98 845.7
20200531044140 33 279 10.4 15.6 0.00 0.00 0.00 98 845.7
20200531044040 33 233 10.4 12.2 0.00 0.00 0.00 98 845.7
20200531043940 33 271 10.4 15.6 0.00 0.00 0.00 98 845.8
20200531043840 33 230 9.6 10.4 0.00 0.00 0.00 98 845.8
20200531043740 33 216 9.6 12.2 0.00 0.00 0.00 97 845.8
20200531043640 33 246 21.7 23.5 0.00 0.00 0.00 97 845.4
20200531043540 33 269 25.2 31.3 0.00 0.00 0.00 98 845.0
20200531043440 33 252 21.7 23.5 0.00 0.00 0.00 98 845.5
20200531043340 33 265 16.5 17.4 0.00 0.00 0.00 98 845.7
20200531043240 33 254 13.9 14.8 0.00 0.00 0.00 98 845.8
20200531043140 33 244 7.8 9.6 0.00 0.00 0.00 98 845.7
20200531043041 33 255 13.0 18.2 0.00 0.00 0.00 98 845.5
20200531042940 32 278 18.2 25.2 0.00 0.00 0.00 98 845.3
20200531042840 32 255 20.9 25.2 0.00 0.00 0.00 98 845.4
20200531042740 32 263 25.2 27.8 0.00 0.00 0.00 98 845.1
20200531042640 32 276 15.6 19.1 0.00 0.00 0.00 98 845.4
20200531042540 32 282 13.9 19.1 0.00 0.00 0.00 98 845.5
20200531042440 32 276 16.5 25.2 0.00 0.00 0.00 98 845.3
20200531042340 32 274 20.0 24.3 0.00 0.00 0.00 98 845.3
20200531042240 32 240 18.2 22.6 0.00 0.00 0.00 98 845.5
20200531042140 32 274 20.0 22.6 0.00 0.00 0.00 98 845.4
20200531042040 32 286 18.2 27.8 0.00 0.00 0.00 98 845.0
20200531041940 32 258 16.5 22.6 0.00 0.00 0.00 98 845.7
20200531041840 32 226 16.5 19.1 0.00 0.00 0.00 98 845.5
20200531041740 32 258 16.5 21.7 0.00 0.00 0.00 98 845.3
20200531041640 32 249 17.4 20.9 0.00 0.00 0.00 98 845.5
20200531041540 32 239 23.5 26.1 0.00 0.00 0.00 98 845.3
20200531041440 32 261 23.5 26.9 0.00 0.00 0.00 98 845.4
20200531041340 32 245 22.6 24.3 0.00 0.00 0.00 98 845.3
20200531041240 32 263 21.7 23.5 0.00 0.00 0.00 98 845.4
20200531041140 32 260 24.3 27.8 0.00 0.00 0.00 98 845.4
20200531041040 32 253 24.3 26.1 0.00 0.00 0.00 98 845.4
20200531040940 32 259 20.9 23.5 0.00 0.00 0.00 98 845.5
20200531040840 32 255 17.4 23.5 0.00 0.00 0.00 98 845.7
20200531040740 32 284 23.5 26.9 0.00 0.00 0.00 98 845.4
20200531040640 32 257 12.2 16.5 0.00 0.00 0.00 98 845.7
20200531040540 32 277 17.4 23.5 0.00 0.00 0.00 98 845.4
20200531040440 32 287 25.2 31.3 0.00 0.00 0.00 98 845.3
20200531040340 32 265 21.7 26.1 0.00 0.00 0.00 98 845.1
20200531040140 32 261 17.4 20.9 0.00 0.00 0.00 98 845.4
20200531040040 32 207 12.2 18.2 0.00 0.00 0.00 98 845.7
20200531035940 32 236 15.6 19.1 0.00 0.00 0.00 98 845.7
20200531035840 32 258 18.2 22.6 0.00 0.00 0.00 98 845.7
20200531035740 32 238 21.7 24.3 0.00 0.00 0.00 98 845.7
20200531035640 32 237 16.5 18.2 0.00 0.00 0.00 98 845.7
20200531035540 32 243 14.8 18.2 0.00 0.00 0.00 98 845.7
20200531035440 32 216 18.2 20.0 0.00 0.00 0.00 98 845.7
20200531035340 32 263 13.0 17.4 0.00 0.00 0.00 98 845.7
20200531035241 32 240 13.0 13.9 0.00 0.00 0.00 98 845.8
20200531035141 32 243 14.8 15.6 0.00 0.00 0.00 98 845.8
20200531035040 32 239 20.9 22.6 0.00 0.00 0.00 98 845.4
20200531034941 32 261 12.2 18.2 0.00 0.00 0.00 98 845.7
20200531034841 32 227 19.1 21.7 0.00 0.00 0.00 98 845.5
20200531034740 32 212 11.3 15.6 0.00 0.00 0.00 98 845.8
20200531034640 33 274 9.6 12.2 0.00 0.00 0.00 98 845.8
20200531034540 33 241 18.2 21.7 0.00 0.00 0.00 98 845.7
20200531034440 33 254 20.0 23.5 0.00 0.00 0.00 98 845.5
20200531034340 33 255 20.0 25.2 0.00 0.00 0.00 97 845.7
20200531034240 33 201 15.6 20.0 0.00 0.00 0.00 97 845.7
20200531034140 33 246 13.0 15.6 0.00 0.00 0.00 97 845.7
20200531034040 33 236 13.0 14.8 0.00 0.00 0.00 97 845.8
20200531033940 33 236 20.0 20.9 0.00 0.00 0.00 97 845.5
20200531033840 33 263 15.6 18.2 0.00 0.00 0.00 97 845.7
20200531033740 33 252 12.2 14.8 0.00 0.00 0.00 97 845.7
20200531033640 33 256 20.9 24.3 0.00 0.00 0.00 97 845.7
20200531033540 33 255 16.5 17.4 0.00 0.00 0.00 97 845.7
20200531033440 33 247 13.0 20.9 0.00 0.00 0.00 97 845.7
20200531033340 33 294 12.2 20.9 0.00 0.00 0.00 97 845.4
20200531033240 33 240 17.4 20.0 0.00 0.00 0.00 97 845.7
20200531033140 33 251 20.9 22.6 0.00 0.00 0.00 97 845.5
20200531033040 33 280 9.6 12.2 0.00 0.00 0.00 97 845.7
20200531032940 33 299 9.6 14.8 0.00 0.00 0.00 97 845.7
20200531032840 33 248 13.9 17.4 0.00 0.00 0.00 97 845.7
20200531032740 33 245 13.0 13.9 0.00 0.00 0.00 97 845.7
20200531032640 33 249 20.0 22.6 0.00 0.00 0.00 97 845.7
20200531032540 33 234 13.9 16.5 0.00 0.00 0.00 97 845.7
20200531032440 33 252 13.0 14.8 0.00 0.00 0.00 97 845.8
20200531032340 33 225 13.9 15.6 0.00 0.00 0.00 97 845.7
20200531032240 33 248 14.8 20.0 0.00 0.00 0.00 96 845.7
20200531032140 33 242 13.9 17.4 0.00 0.00 0.00 96 845.7
20200531032040 33 243 7.8 11.3 0.00 0.00 0.00 96 845.7
20200531031940 33 229 17.4 20.9 0.00 0.00 0.00 96 845.7
20200531031840 33 261 30.4 34.8 0.00 0.00 0.00 96 845.3
20200531031740 33 261 21.7 26.1 0.00 0.00 0.00 96 845.3
20200531031640 33 255 14.8 18.2 0.00 0.00 0.00 97 845.4
20200531031540 33 274 23.5 29.5 0.00 0.00 0.00 97 845.1
20200531031440 33 282 13.0 22.6 0.00 0.00 0.00 97 845.4
20200531031340 33 245 19.1 21.7 0.00 0.00 0.00 97 845.5
20200531031240 33 244 24.3 27.8 0.00 0.00 0.00 97 845.4
20200531031140 32 251 21.7 26.1 0.00 0.00 0.00 97 845.3
20200531031040 32 251 18.2 24.3 0.00 0.00 0.00 97 845.5
20200531030940 32 279 20.0 24.3 0.00 0.00 0.00 97 845.0
20200531030840 32 262 18.2 24.3 0.00 0.00 0.00 97 845.3
20200531030740 32 242 13.0 15.6 0.00 0.00 0.00 97 845.7
20200531030640 32 250 9.6 13.9 0.00 0.00 0.00 97 845.9
20200531030540 32 256 16.5 24.3 0.00 0.00 0.00 97 845.7
20200531030440 32 250 20.9 21.7 0.00 0.00 0.00 97 845.5
20200531030340 32 257 16.5 19.1 0.00 0.00 0.00 97 845.8
20200531030240 32 264 16.5 23.5 0.00 0.00 0.00 97 845.7
20200531030140 32 258 14.8 16.5 0.00 0.00 0.00 97 845.7
20200531030040 32 259 25.2 28.7 0.00 0.00 0.00 97 845.3
20200531025940 32 266 23.5 24.3 0.00 0.00 0.00 97 845.5
20200531025840 32 248 15.6 19.1 0.00 0.00 0.00 97 845.7
20200531025740 32 243 13.0 15.6 0.00 0.00 0.00 97 845.8
20200531025640 32 283 15.6 20.0 0.00 0.00 0.00 97 845.8
20200531025540 32 262 16.5 23.5 0.00 0.00 0.00 97 845.7
20200531025440 32 261 18.2 22.6 0.00 0.00 0.00 97 845.4
20200531025340 33 258 21.7 23.5 0.00 0.00 0.00 96 845.4
20200531025240 33 263 20.0 25.2 0.00 0.00 0.00 96 845.5
20200531025140 33 262 24.3 28.7 0.00 0.00 0.00 96 845.3
20200531025040 33 318 5.2 7.8 0.00 0.00 0.00 96 845.7
20200531024940 33 242 20.9 24.3 0.00 0.00 0.00 96 845.5
20200531024840 33 266 27.8 35.6 0.00 0.00 0.00 97 844.9
20200531024740 33 255 26.1 30.4 0.00 0.00 0.00 97 845.3
20200531024640 33 253 20.9 23.5 0.00 0.00 0.00 96 845.4
20200531024540 33 253 20.0 21.7 0.00 0.00 0.00 97 845.7
20200531024440 33 253 17.4 23.5 0.00 0.00 0.00 97 845.7
20200531024340 33 259 25.2 26.9 0.00 0.00 0.00 96 845.5
20200531024240 33 296 13.0 20.0 0.00 0.00 0.00 97 845.7
20200531024140 32 259 23.5 25.2 0.00 0.00 0.00 97 845.3
20200531024040 32 257 28.7 34.8 0.00 0.00 0.00 97 844.9
20200531023940 33 266 22.6 28.7 0.00 0.00 0.00 96 845.3
20200531023840 33 282 9.6 15.6 0.00 0.00 0.00 96 845.8
20200531023740 33 268 16.5 20.9 0.00 0.00 0.00 96 845.5
20200531023640 33 261 23.5 26.9 0.00 0.00 0.00 96 845.7
20200531023540 33 270 20.0 27.8 0.00 0.00 0.00 96 845.4
20200531023440 33 270 23.5 27.8 0.00 0.00 0.00 96 845.3
20200531023340 33 249 15.6 17.4 0.00 0.00 0.00 97 845.8
20200531023240 33 268 19.1 23.5 0.00 0.00 0.00 97 845.7
20200531023140 33 302 10.4 18.2 0.00 0.00 0.00 97 845.7
20200531023040 33 262 23.5 26.1 0.00 0.00 0.00 97 845.5
20200531022940 32 269 18.2 25.2 0.00 0.00 0.00 98 845.5
20200531022840 32 260 26.1 28.7 0.00 0.00 0.00 98 845.3
20200531022740 32 261 18.2 21.7 0.00 0.00 0.00 98 845.7
20200531022640 32 245 22.6 26.1 0.00 0.00 0.00 98 845.7
20200531022540 33 260 20.9 22.6 0.00 0.00 0.00 98 845.7
20200531022440 33 244 15.6 20.9 0.00 0.00 0.00 98 845.8
20200531022340 32 250 25.2 26.1 0.00 0.00 0.00 98 845.7
20200531022240 32 264 12.2 19.1 0.00 0.00 0.00 98 845.7
20200531022140 32 282 15.6 19.1 0.00 0.00 0.00 99 845.7
20200531022040 33 262 23.5 25.2 0.00 0.00 0.00 99 845.8
20200531021940 33 264 13.0 19.1 0.00 0.00 0.00 99 845.9
20200531021840 32 272 25.2 34.8 0.00 0.00 0.00 99 845.1
20200531021740 32 245 17.4 23.5 0.00 0.00 0.00 99 845.7
20200531021640 32 255 23.5 25.2 0.00 0.00 0.00 10 845.7
20200531021540 32 277 20.0 26.9 0.00 0.00 0.00 10 845.5
20200531021440 32 266 18.2 22.6 0.00 0.00 0.00 10 845.8
20200531021340 32 264 20.0 22.6 0.00 0.00 0.00 10 845.8
20200531021240 32 279 14.8 22.6 0.00 0.00 0.00 10 845.7
20200531021140 32 276 16.5 19.1 0.00 0.00 0.00 10 845.5
20200531021040 32 265 23.5 26.1 0.00 0.00 0.00 10 845.4
20200531020940 32 257 21.7 24.3 0.00 0.00 0.00 10 845.7
20200531020840 32 289 11.3 17.4 0.00 0.00 0.00 10 845.8
20200531020740 32 286 15.6 22.6 0.00 0.00 0.00 10 845.7
20200531020640 32 256 16.5 20.0 0.00 0.00 0.00 10 845.9
20200531020540 32 247 20.9 22.6 0.00 0.00 0.00 10 845.8
20200531020440 32 241 17.4 20.9 0.00 0.00 0.00 10 845.9
20200531020340 32 264 18.2 23.5 0.00 0.00 0.00 10 845.8
20200531020240 32 262 22.6 23.5 0.00 0.00 0.00 10 845.8
20200531020140 32 263 20.0 20.9 0.00 0.00 0.00 10 845.8
20200531020040 32 249 16.5 18.2 0.00 0.00 0.00 10 846.1
20200531015940 32 247 16.5 20.0 0.00 0.00 0.00 10 845.9
20200531015840 32 277 14.8 16.5 0.00 0.00 0.00 10 845.9
20200531015740 32 268 21.7 25.2 0.00 0.00 0.00 10 845.7
20200531015640 32 279 16.5 24.3 0.00 0.00 0.00 10 845.9
20200531015540 32 268 13.0 16.5 0.00 0.00 0.00 10 845.9
20200531015440 32 244 17.4 21.7 0.00 0.00 0.00 10 846.1
20200531015340 32 269 19.1 23.5 0.00 0.00 0.00 10 846.1
20200531015241 32 271 16.5 23.5 0.00 0.00 0.00 10 845.7
20200531015140 32 290 24.3 28.7 0.00 0.00 0.00 10 845.7
20200531015040 32 268 25.2 28.7 0.00 0.00 0.00 10 845.5
20200531014940 32 269 20.9 23.5 0.00 0.00 0.00 10 845.7
20200531014840 32 254 19.1 23.5 0.00 0.00 0.00 10 846.1
20200531014740 32 285 13.0 20.0 0.00 0.00 0.00 10 845.8
20200531014640 32 254 16.5 20.0 0.00 0.00 0.00 10 846.1
20200531014540 32 238 16.5 18.2 0.00 0.00 0.00 10 846.1
20200531014440 32 257 15.6 18.2 0.00 0.00 0.00 10 845.9
20200531014340 32 277 16.5 18.2 0.00 0.00 0.00 10 845.8
20200531014240 32 242 21.7 24.3 0.00 0.00 0.00 10 845.9
20200531014140 32 255 26.9 28.7 0.00 0.00 0.00 10 845.7
20200531014040 32 250 20.9 22.6 0.00 0.00 0.00 10 845.9
20200531013940 32 259 16.5 21.7 0.00 0.00 0.00 10 846.1
20200531013840 32 239 18.2 20.9 0.00 0.00 0.00 10 846.2
20200531013740 32 285 16.5 26.9 0.00 0.00 0.00 10 845.7
20200531013640 33 264 17.4 19.1 0.00 0.00 0.00 10 845.9
20200531013540 33 271 10.4 15.6 0.00 0.00 0.00 10 846.1
20200531013440 33 296 13.9 19.1 0.00 0.00 0.00 10 846.2
20200531013340 32 283 16.5 21.7 0.00 0.00 0.00 10 845.7
20200531013240 33 255 20.9 23.5 0.00 0.00 0.00 10 845.9
20200531013140 33 284 14.8 20.9 0.00 0.00 0.00 10 846.1
20200531013040 33 263 17.4 20.0 0.00 0.00 0.00 10 846.1
20200531012940 32 251 15.6 16.5 0.00 0.00 0.00 10 846.1
20200531012840 32 252 15.6 20.0 0.00 0.00 0.00 10 846.1
20200531012740 33 260 26.1 30.4 0.00 0.00 0.00 10 845.7
20200531012640 33 284 21.7 26.9 0.00 0.00 0.00 10 846.1
20200531012540 33 271 14.8 19.1 0.00 0.00 0.00 10 845.9
20200531012440 33 288 7.8 12.2 0.00 0.00 0.00 10 846.3
20200531012340 33 277 18.2 21.7 0.00 0.00 0.00 10 846.1
20200531012240 33 274 21.7 24.3 0.00 0.00 0.00 10 845.8
20200531012140 33 281 17.4 24.3 0.00 0.00 0.00 10 846.1
20200531012040 33 268 17.4 20.0 0.00 0.00 0.00 10 846.3
20200531011940 33 283 19.1 22.6 0.00 0.00 0.00 10 846.2
20200531011840 33 279 20.0 24.3 0.00 0.00 0.00 10 845.8
20200531011740 33 246 14.8 19.1 0.00 0.00 0.00 10 846.3
20200531011640 33 256 13.0 15.6 0.00 0.00 0.00 10 846.5
20200531011540 33 267 20.0 21.7 0.00 0.00 0.00 10 846.1
20200531011440 33 282 15.6 20.9 0.00 0.00 0.00 10 846.1
20200531011340 33 282 17.4 20.9 0.00 0.00 0.00 10 846.3
20200531011240 33 273 20.9 25.2 0.00 0.00 0.00 10 846.1
20200531011140 33 278 14.8 19.1 0.00 0.00 0.00 10 845.9
20200531011040 33 249 23.5 26.9 0.00 0.00 0.00 10 846.1
20200531010940 33 269 20.0 24.3 0.00 0.00 0.00 10 846.1
20200531010840 33 259 15.6 19.1 0.00 0.00 0.00 10 846.2
20200531010740 33 274 19.1 25.2 0.00 0.00 0.00 10 846.1
20200531010640 33 256 20.9 22.6 0.00 0.00 0.00 10 846.2
20200531010540 33 259 26.9 30.4 0.00 0.00 0.00 10 845.7
20200531010440 33 275 16.5 23.5 0.00 0.00 0.00 10 846.1
20200531010340 33 238 21.7 23.5 0.00 0.00 0.00 10 846.2
20200531010240 33 260 21.7 26.1 0.00 0.00 0.00 10 846.1
20200531010140 33 241 21.7 26.9 0.00 0.00 0.00 10 846.2
20200531010039 33 262 15.6 21.7 0.00 0.00 0.00 10 846.3
20200531005940 33 266 24.3 26.9 0.00 0.00 0.00 99 845.9
20200531005840 33 279 16.5 21.7 0.00 0.00 0.00 99 845.8
20200531005740 33 256 27.8 31.3 0.00 0.00 0.00 99 845.9
20200531005640 33 272 17.4 22.6 0.00 0.00 0.00 99 846.1
20200531005540 33 247 19.1 23.5 0.00 0.00 0.00 99 846.1
20200531005440 33 242 14.8 21.7 0.00 0.00 0.00 99 846.5
20200531005340 33 263 31.3 33.0 0.00 0.00 0.00 99 845.7
20200531005240 33 253 26.1 27.8 0.00 0.00 0.00 99 846.1
20200531005140 33 265 22.6 26.9 0.00 0.00 0.00 99 846.1
20200531005040 33 254 23.5 25.2 0.00 0.00 0.00 99 846.1
20200531004940 33 214 12.2 14.8 0.00 0.00 0.00 99 846.6
20200531004840 33 258 20.0 26.1 0.00 0.00 0.00 99 846.1
20200531004740 33 224 15.6 19.1 0.00 0.00 0.00 99 846.5
20200531004640 33 264 23.5 26.9 0.00 0.00 0.00 99 846.2
20200531004540 33 276 9.6 13.9 0.00 0.00 0.00 99 846.6
20200531004440 33 269 12.2 15.6 0.00 0.00 0.00 99 846.6
20200531004340 33 242 15.6 20.0 0.00 0.00 0.00 99 846.5
20200531004240 33 247 18.2 20.0 0.00 0.00 0.00 99 846.5
20200531004140 33 268 20.9 25.2 0.00 0.00 0.00 99 846.2
20200531004040 33 265 17.4 21.7 0.00 0.00 0.00 99 846.3
20200531003940 33 237 15.6 16.5 0.00 0.00 0.00 99 846.7
20200531003840 33 262 26.1 30.4 0.00 0.00 0.00 99 846.1
20200531003740 33 251 16.5 18.2 0.00 0.00 0.00 99 846.5
20200531003639 33 240 13.0 17.4 0.00 0.00 0.00 99 846.5
20200531003540 33 231 15.6 18.2 0.00 0.00 0.00 99 846.5
20200531003439 33 246 14.8 18.2 0.00 0.00 0.00 99 846.6
20200531003340 33 247 20.9 22.6 0.00 0.00 0.00 99 846.5
20200531003239 33 259 22.6 26.1 0.00 0.00 0.00 99 846.3
20200531003140 33 293 14.8 23.5 0.00 0.00 0.00 99 846.5
20200531003039 33 253 17.4 19.1 0.00 0.00 0.00 99 846.5
20200531002940 33 249 18.2 19.1 0.00 0.00 0.00 99 846.5
20200531002840 33 257 16.5 19.1 0.00 0.00 0.00 99 846.6
20200531002739 33 251 22.6 26.1 0.00 0.00 0.00 99 846.3
20200531002639 33 253 17.4 19.1 0.00 0.00 0.00 99 846.6
20200531002540 33 263 22.6 24.3 0.00 0.00 0.00 99 846.3
20200531002440 33 262 14.8 20.9 0.00 0.00 0.00 99 846.5
20200531002340 33 244 18.2 20.0 0.00 0.00 0.00 99 846.5
20200531002240 33 223 14.8 20.9 0.00 0.00 0.00 99 846.5
20200531002140 33 277 17.4 20.9 0.00 0.00 0.00 99 846.5
20200531002040 33 267 18.2 24.3 0.00 0.00 0.00 99 846.5
20200531001940 33 285 17.4 21.7 0.00 0.00 0.00 99 846.3
20200531001840 33 246 20.0 21.7 0.00 0.00 0.00 99 846.5
20200531001739 33 252 19.1 22.6 0.00 0.00 0.00 99 846.5
20200531001640 33 293 17.4 23.5 0.00 0.00 0.00 99 846.6
20200531001539 33 261 17.4 21.7 0.00 0.00 0.00 99 846.5
20200531001440 33 263 12.2 15.6 0.00 0.00 0.00 99 846.5
20200531001340 33 261 25.2 27.8 0.00 0.00 0.00 99 846.5
20200531001240 33 270 13.9 19.1 0.00 0.00 0.00 99 846.5
20200531001140 33 254 19.1 20.9 0.00 0.00 0.00 99 846.6
20200531001039 33 251 16.5 21.7 0.00 0.00 0.00 99 846.5
20200531000940 33 247 24.3 25.2 0.00 0.00 0.00 99 846.5
20200531000839 33 267 24.3 28.7 0.00 0.00 0.00 99 846.1
20200531000740 33 268 18.2 23.5 0.00 0.00 0.00 99 846.5
20200531000641 33 262 18.2 24.3 0.00 0.00 0.00 99 846.3
20200531000540 33 281 18.2 26.9 0.00 0.00 0.00 99 846.5
20200531000440 33 256 14.8 17.4 0.00 0.00 0.00 99 846.6
20200531000340 33 264 15.6 21.7 0.00 0.00 0.00 99 846.6
20200531000240 33 284 17.4 28.7 0.00 0.00 0.00 99 846.6
20200531000140 33 283 13.0 16.5 0.00 0.00 0.00 99 846.5
20200531000040 33 279 23.5 25.2 0.00 0.00 0.00 99 846.3
20200530235940 33 261 21.7 22.6 0.00 0.00 0.00 99 846.5
20200530235840 33 272 10.4 16.5 0.00 0.00 0.00 99 846.5
20200530235739 33 282 20.9 25.2 0.00 0.00 0.00 99 846.2
20200530235639 33 253 17.4 20.9 0.00 0.00 0.00 99 846.6
20200530235540 33 264 26.1 32.2 0.00 0.00 0.00 99 846.1
20200530235440 33 271 14.8 16.5 0.00 0.00 0.00 99 846.9
20200530235339 33 277 16.5 22.6 0.00 0.00 0.00 99 846.5
20200530235240 33 250 17.4 21.7 0.00 0.00 0.00 99 846.7
20200530235140 33 271 11.3 13.9 0.00 0.00 0.00 99 846.9
20200530235039 33 268 12.2 14.8 0.00 0.00 0.00 99 846.9
20200530234939 33 247 15.6 16.5 0.00 0.00 0.00 99 846.9
20200530234840 33 271 13.9 17.4 0.00 0.00 0.00 99 846.9
20200530234740 33 263 16.5 20.9 0.00 0.00 0.00 99 846.7
20200530234639 33 270 21.7 26.9 0.00 0.00 0.00 99 846.3
20200530234539 33 263 21.7 24.3 0.00 0.00 0.00 99 846.5
20200530234439 33 288 10.4 11.3 0.00 0.00 0.00 99 846.6
20200530234340 33 288 15.6 21.7 0.00 0.00 0.00 99 846.9
20200530234239 33 279 15.6 24.3 0.00 0.00 0.00 99 846.9
20200530234139 33 283 20.9 26.1 0.00 0.00 0.00 99 846.7
20200530234039 33 292 19.1 26.9 0.00 0.00 0.00 99 846.7
20200530233939 33 262 14.8 20.9 0.00 0.00 0.00 99 846.9
20200530233839 33 279 21.7 26.9 0.00 0.00 0.00 99 846.7
20200530233739 33 264 15.6 20.0 0.00 0.00 0.00 99 846.7
20200530233639 33 262 16.5 20.0 0.00 0.00 0.00 99 846.9
20200530233539 33 286 20.0 23.5 0.00 0.00 0.00 99 846.9
20200530233439 33 260 17.4 24.3 0.00 0.00 0.00 99 846.9
20200530233339 33 274 14.8 19.1 0.00 0.00 0.00 99 846.9
20200530233239 33 268 17.4 23.5 0.00 0.00 0.00 99 846.6
20200530233139 33 260 24.3 26.9 0.00 0.00 0.00 99 846.7
20200530233039 33 283 10.4 14.8 0.00 0.00 0.00 99 846.9
20200530232939 33 266 20.0 22.6 0.00 0.00 0.00 99 846.9
20200530232840 33 267 20.0 22.6 0.00 0.00 0.00 99 846.7
20200530232739 33 286 14.8 20.9 0.00 0.00 0.00 99 847.0
20200530232639 33 267 18.2 20.9 0.00 0.00 0.00 99 846.9
20200530232539 33 266 21.7 25.2 0.00 0.00 0.00 99 846.6
20200530232439 33 276 13.9 20.0 0.00 0.00 0.00 99 846.9
20200530232343 33 282 18.2 21.7 0.00 0.00 0.00 99 846.9
20200530232239 33 271 16.5 20.0 0.00 0.00 0.00 99 847.0
20200530232139 33 270 23.5 28.7 0.00 0.00 0.00 99 846.6
20200530232039 33 268 18.2 19.1 0.00 0.00 0.00 99 846.9
20200530231939 33 274 14.8 17.4 0.00 0.00 0.00 99 847.0
20200530231839 33 281 9.6 16.5 0.00 0.00 0.00 99 847.1
20200530231739 33 264 20.9 23.5 0.00 0.00 0.00 99 846.9
20200530231639 33 265 17.4 19.1 0.00 0.00 0.00 99 847.0
20200530231539 33 255 14.8 16.5 0.00 0.00 0.00 99 847.0
20200530231439 33 267 16.5 20.0 0.00 0.00 0.00 99 847.0
20200530231339 33 260 18.2 20.0 0.00 0.00 0.00 99 847.1
20200530231240 33 268 26.1 27.8 0.00 0.00 0.00 99 846.5
20200530231140 33 269 22.6 24.3 0.00 0.00 0.00 99 846.9
20200530231040 33 270 18.2 22.6 0.00 0.00 0.00 99 846.6
20200530230940 33 259 21.7 24.3 0.00 0.00 0.00 99 847.0
20200530230840 33 288 13.9 18.2 0.00 0.00 0.00 99 847.0
20200530230739 33 265 19.1 21.7 0.00 0.00 0.00 99 847.0
20200530230640 33 287 24.3 30.4 0.00 0.00 0.00 99 847.0
20200530230539 33 284 16.5 21.7 0.00 0.00 0.00 99 847.0
20200530230439 33 269 16.5 25.2 0.00 0.00 0.00 99 847.1
20200530230340 33 269 23.5 26.9 0.00 0.00 0.00 99 846.6
20200530230239 33 292 23.5 27.8 0.00 0.00 0.00 99 846.9
20200530230139 33 279 13.9 19.1 0.00 0.00 0.00 99 847.1
20200530230039 33 283 19.1 25.2 0.00 0.00 0.00 99 846.9
20200530225940 33 271 13.0 17.4 0.00 0.00 0.00 99 847.3
20200530225839 33 263 14.8 22.6 0.00 0.00 0.00 99 847.3
20200530225739 33 278 13.9 18.2 0.00 0.00 0.00 99 847.3
20200530225640 33 269 18.2 22.6 0.00 0.00 0.00 99 847.0
20200530225539 33 280 16.5 24.3 0.00 0.00 0.00 99 846.9
20200530225439 33 295 15.6 21.7 0.00 0.00 0.00 99 847.1
20200530225339 33 261 23.5 28.7 0.00 0.00 0.00 99 846.9
20200530225239 33 273 20.0 25.2 0.00 0.00 0.00 99 847.0
20200530225139 33 268 20.9 24.3 0.00 0.00 0.00 99 847.1
20200530225039 33 267 21.7 24.3 0.00 0.00 0.00 99 846.9
20200530224939 33 275 17.4 21.7 0.00 0.00 0.00 99 846.9
20200530224839 33 277 13.9 19.1 0.00 0.00 0.00 99 847.3
20200530224739 33 267 25.2 28.7 0.00 0.00 0.00 99 846.9
20200530224639 33 279 21.7 23.5 0.00 0.00 0.00 99 847.0
20200530224539 33 269 18.2 22.6 0.00 0.00 0.00 99 847.0
20200530224439 33 269 18.2 23.5 0.00 0.00 0.00 99 847.3
20200530224339 33 270 19.1 23.5 0.00 0.00 0.00 99 846.9
20200530224239 33 278 16.5 20.0 0.00 0.00 0.00 99 847.3
20200530224139 33 287 15.6 19.1 0.00 0.00 0.00 99 847.3
20200530224039 33 288 15.6 22.6 0.00 0.00 0.00 99 847.3
20200530223940 33 275 20.0 25.2 0.00 0.00 0.00 99 847.1
20200530223839 33 278 20.0 24.3 0.00 0.00 0.00 99 847.1
20200530223739 33 271 24.3 26.1 0.00 0.00 0.00 99 847.1
20200530223639 33 261 22.6 25.2 0.00 0.00 0.00 99 847.3
20200530223539 33 263 18.2 26.9 0.00 0.00 0.00 99 847.0
20200530223439 33 282 14.8 19.1 0.00 0.00 0.00 99 847.3
20200530223339 33 263 18.2 22.6 0.00 0.00 0.00 99 847.3
20200530223239 33 274 20.9 26.9 0.00 0.00 0.00 99 847.1
20200530223139 33 271 18.2 23.5 0.00 0.00 0.00 99 847.3
20200530223039 33 277 9.6 15.6 0.00 0.00 0.00 99 847.5
20200530222939 33 269 20.9 25.2 0.00 0.00 0.00 99 847.3
20200530222839 33 261 25.2 27.8 0.00 0.00 0.00 99 847.3
20200530222739 33 271 11.3 15.6 0.00 0.00 0.00 99 847.5
20200530222639 33 266 23.5 26.9 0.00 0.00 0.00 99 847.0
20200530222539 33 263 23.5 25.2 0.00 0.00 0.00 99 847.3
20200530222439 33 266 15.6 19.1 0.00 0.00 0.00 99 847.5
20200530222339 33 242 20.9 22.6 0.00 0.00 0.00 99 847.4
20200530222239 33 244 23.5 25.2 0.00 0.00 0.00 99 847.4
20200530222139 33 244 23.5 25.2 0.00 0.00 0.00 99 847.3
20200530222039 33 263 22.6 25.2 0.00 0.00 0.00 99 847.3
20200530221939 33 292 13.9 21.7 0.00 0.00 0.00 99 847.3
20200530221839 33 255 24.3 28.7 0.00 0.00 0.00 99 847.3
20200530221739 33 261 24.3 26.1 0.00 0.00 0.00 99 847.3
20200530221639 33 255 22.6 26.1 0.00 0.00 0.00 99 847.3
20200530221539 33 281 9.6 16.5 0.00 0.00 0.00 99 847.4
20200530221439 33 269 20.0 23.5 0.00 0.00 0.00 99 847.3
20200530221339 33 265 22.6 24.3 0.00 0.00 0.00 99 847.3
20200530221239 34 276 14.8 19.1 0.00 0.00 0.00 99 847.4
20200530221139 34 269 24.3 29.5 0.00 0.00 0.00 99 846.9
20200530221039 34 250 17.4 19.1 0.00 0.00 0.00 99 847.5
20200530220939 34 253 21.7 24.3 0.00 0.00 0.00 99 847.3
20200530220839 34 254 23.5 26.9 0.00 0.00 0.00 99 847.3
20200530220739 34 232 20.0 21.7 0.00 0.00 0.00 99 847.4
20200530220639 33 256 20.9 26.1 0.00 0.00 0.00 99 847.5
20200530220539 33 267 16.5 24.3 0.00 0.00 0.00 99 847.3
20200530220439 33 274 20.0 21.7 0.00 0.00 0.00 99 847.4
20200530220339 33 281 12.2 18.2 0.00 0.00 0.00 99 847.3
20200530220239 33 275 17.4 23.5 0.00 0.00 0.00 99 847.4
20200530220139 33 258 18.2 21.7 0.00 0.00 0.00 99 847.4
20200530220039 33 289 13.0 21.7 0.00 0.00 0.00 99 847.4
20200530215939 33 270 13.0 16.5 0.00 0.00 0.00 99 847.3
20200530215839 33 270 25.2 28.7 0.00 0.00 0.00 99 847.3
20200530215739 33 262 16.5 22.6 0.00 0.00 0.00 99 847.5
20200530215639 33 250 19.1 21.7 0.00 0.00 0.00 99 847.5
20200530215539 33 266 25.2 26.9 0.00 0.00 0.00 99 847.3
20200530215439 33 254 18.2 21.7 0.00 0.00 0.00 99 847.7
20200530215339 33 276 20.0 26.9 0.00 0.00 0.00 99 847.3
20200530215239 33 274 16.5 24.3 0.00 0.00 0.00 99 847.3
20200530215139 33 263 18.2 20.9 0.00 0.00 0.00 99 847.7
20200530215039 33 289 18.2 23.5 0.00 0.00 0.00 99 847.7
20200530214939 33 265 17.4 21.7 0.00 0.00 0.00 99 847.4
20200530214839 33 275 13.0 18.2 0.00 0.00 0.00 99 847.7
20200530214739 33 265 14.8 18.2 0.00 0.00 0.00 99 847.7
20200530214639 33 282 11.3 16.5 0.00 0.00 0.00 99 847.7
20200530214539 33 282 16.5 21.7 0.00 0.00 0.00 99 847.7
20200530214439 33 271 18.2 22.6 0.00 0.00 0.00 99 847.7
20200530214339 33 287 12.2 15.6 0.00 0.00 0.00 98 847.7
20200530214239 33 262 21.7 24.3 0.00 0.00 0.00 99 847.4
20200530214139 33 267 13.0 18.2 0.00 0.00 0.00 99 847.7
20200530214039 33 287 15.6 20.0 0.00 0.00 0.00 99 847.5
20200530213939 33 286 20.9 23.5 0.00 0.00 0.00 99 847.7
20200530213839 33 281 13.0 20.0 0.00 0.00 0.00 99 847.7
20200530213739 33 270 20.0 25.2 0.00 0.00 0.00 99 847.4
20200530213639 33 260 18.2 20.0 0.00 0.00 0.00 99 847.7
20200530213539 33 283 25.2 26.9 0.00 0.00 0.00 99 847.4
20200530213439 33 276 16.5 20.0 0.00 0.00 0.00 99 847.5
20200530213339 33 283 14.8 20.0 0.00 0.00 0.00 99 847.5
20200530213239 33 285 15.6 20.9 0.00 0.00 0.00 99 847.5
20200530213139 33 274 21.7 27.8 0.00 0.00 0.00 99 847.5
20200530213039 33 280 20.9 23.5 0.00 0.00 0.00 99 847.5
20200530212939 33 267 21.7 24.3 0.00 0.00 0.00 99 847.3
20200530212839 33 266 20.9 26.1 0.00 0.00 0.00 99 847.4
20200530212739 33 272 23.5 29.5 0.00 0.00 0.00 99 847.5
20200530212639 33 277 18.2 23.5 0.00 0.00 0.00 99 847.4
20200530212539 33 267 17.4 23.5 0.00 0.00 0.00 99 847.7
20200530212439 33 275 18.2 25.2 0.00 0.00 0.00 99 847.4
20200530212339 33 263 15.6 19.1 0.00 0.00 0.00 99 847.7
20200530212239 33 277 24.3 27.8 0.00 0.00 0.00 99 847.0
20200530212139 33 261 17.4 20.9 0.00 0.00 0.00 99 847.7
20200530212039 33 285 18.2 20.0 0.00 0.00 0.00 99 847.4
20200530211939 33 290 14.8 20.0 0.00 0.00 0.00 99 847.7
20200530211839 33 271 21.7 27.8 0.00 0.00 0.00 99 847.3
20200530211739 33 282 22.6 27.8 0.00 0.00 0.00 99 847.5
20200530211639 33 281 17.4 22.6 0.00 0.00 0.00 99 847.7
20200530211539 33 266 20.9 25.2 0.00 0.00 0.00 99 847.5
20200530211439 33 266 20.9 25.2 0.00 0.00 0.00 99 847.5
20200530211339 33 289 19.1 25.2 0.00 0.00 0.00 99 847.7
20200530211239 33 292 17.4 24.3 0.00 0.00 0.00 99 847.7
20200530211140 33 276 23.5 28.7 0.00 0.00 0.00 99 847.4
20200530211040 33 283 19.1 26.1 0.00 0.00 0.00 99 847.4
20200530210940 33 268 20.0 23.5 0.00 0.00 0.00 99 847.5
20200530210840 33 286 17.4 21.7 0.00 0.00 0.00 99 847.9
20200530210739 33 277 16.5 20.9 0.00 0.00 0.00 99 847.7
20200530210639 33 288 16.5 20.9 0.00 0.00 0.00 99 847.5
20200530210539 33 284 14.8 22.6 0.00 0.00 0.00 99 847.7
20200530210439 33 285 14.8 25.2 0.00 0.00 0.00 99 847.7
20200530210339 33 263 22.6 24.3 0.00 0.00 0.00 99 847.5
20200530210239 33 259 23.5 26.9 0.00 0.00 0.00 99 847.5
20200530210139 33 266 18.2 21.7 0.00 0.00 0.00 99 847.5
20200530210039 33 255 20.9 25.2 0.00 0.00 0.00 99 847.7
20200530205939 33 263 26.1 28.7 0.00 0.00 0.00 99 847.4
20200530205839 33 269 25.2 27.8 0.00 0.00 0.00 99 847.3
20200530205739 33 275 20.9 25.2 0.00 0.00 0.00 99 847.3
20200530205639 33 279 18.2 22.6 0.00 0.00 0.00 99 847.5
20200530205539 33 255 27.8 31.3 0.00 0.00 0.00 99 847.3
20200530205439 33 281 18.2 23.5 0.00 0.00 0.00 99 847.4
20200530205339 33 279 22.6 28.7 0.00 0.00 0.00 99 847.4
20200530205239 33 274 13.9 20.0 0.00 0.00 0.00 99 847.7
20200530205139 33 271 20.0 23.5 0.00 0.00 0.00 99 847.4
20200530205039 33 261 20.9 25.2 0.00 0.00 0.00 99 847.7
20200530204939 33 272 14.8 22.6 0.00 0.00 0.00 99 847.7
20200530204839 33 256 20.0 22.6 0.00 0.00 0.00 99 847.7
20200530204739 33 256 21.7 23.5 0.00 0.00 0.00 99 847.7
20200530204639 33 263 22.6 24.3 0.00 0.00 0.00 98 847.7
20200530204539 33 269 23.5 26.9 0.00 0.00 0.00 98 847.7
20200530204439 33 263 25.2 26.1 0.00 0.00 0.00 98 847.5
20200530204339 33 260 22.6 26.1 0.00 0.00 0.00 98 847.7
20200530204239 33 272 20.9 23.5 0.00 0.00 0.00 98 847.7
20200530204141 33 257 25.2 26.9 0.00 0.00 0.00 98 847.7
20200530204039 33 265 21.7 23.5 0.00 0.00 0.00 98 847.7
20200530203939 33 286 12.2 17.4 0.00 0.00 0.00 98 847.7
20200530203839 33 252 20.0 21.7 0.00 0.00 0.00 98 847.9
20200530203739 33 263 15.6 20.0 0.00 0.00 0.00 98 847.9
20200530203639 33 259 13.0 15.6 0.00 0.00 0.00 98 848.1
20200530203539 33 286 13.9 21.7 0.00 0.00 0.00 98 847.9
20200530203439 33 268 16.5 21.7 0.00 0.00 0.00 98 847.7
20200530203339 33 264 20.0 22.6 0.00 0.00 0.00 98 847.7
20200530203239 33 278 14.8 20.0 0.00 0.00 0.00 98 847.8
20200530203139 33 267 13.0 20.0 0.00 0.00 0.00 98 848.1
20200530203039 33 256 20.9 25.2 0.00 0.00 0.00 98 847.8
20200530202839 33 228 13.9 15.6 0.00 0.00 0.00 98 848.1
20200530202739 33 261 25.2 26.9 0.00 0.00 0.00 98 847.7
20200530202639 33 257 17.4 20.0 0.00 0.00 0.00 98 848.1
20200530202539 34 236 15.6 16.5 0.00 0.00 0.00 97 848.1
20200530202439 34 272 23.5 27.8 0.00 0.00 0.00 97 847.7
20200530202339 34 258 22.6 25.2 0.00 0.00 0.00 97 847.9
20200530202239 34 252 20.9 23.5 0.00 0.00 0.00 97 847.9
20200530202139 34 261 21.7 23.5 0.00 0.00 0.00 97 847.8
20200530202039 34 256 18.2 21.7 0.00 0.00 0.00 97 848.1
20200530201939 34 256 25.2 27.8 0.00 0.00 0.00 97 847.8
20200530201839 34 267 24.3 27.8 0.00 0.00 0.00 97 847.7
20200530201739 34 268 21.7 25.2 0.00 0.00 0.00 96 847.7
20200530201639 34 271 18.2 24.3 0.00 0.00 0.00 96 847.8
20200530201539 34 291 14.8 20.0 0.00 0.00 0.00 96 847.9
20200530201439 34 271 22.6 26.9 0.00 0.00 0.00 96 847.7
20200530201339 34 283 11.3 17.4 0.00 0.00 0.00 96 847.8
20200530201239 34 272 22.6 26.1 0.00 0.00 0.00 96 847.7
20200530201139 34 268 20.0 25.2 0.00 0.00 0.00 95 847.7
20200530201039 34 286 12.2 19.1 0.00 0.00 0.00 95 847.8
20200530200939 34 266 29.5 34.8 0.00 0.00 0.00 95 847.3
20200530200839 34 268 26.1 29.5 0.00 0.00 0.00 94 847.1
20200530200739 34 275 23.5 26.9 0.00 0.00 0.00 94 847.3
20200530200639 34 256 20.9 25.2 0.00 0.00 0.00 93 847.7
20200530200539 34 269 21.7 27.8 0.00 0.00 0.00 93 847.7
20200530200439 34 277 19.1 21.7 0.00 0.00 0.00 93 847.5
20200530200339 34 274 22.6 27.8 0.00 0.00 0.00 94 847.7
20200530200239 34 268 22.6 26.9 0.00 0.00 0.00 93 847.3
20200530200139 34 281 16.5 20.0 0.00 0.00 0.00 93 847.5
20200530200039 34 273 19.1 27.8 0.00 0.00 0.00 94 847.4
20200530195939 34 271 20.0 27.8 0.00 0.00 0.00 94 847.4
20200530195839 34 277 20.0 26.1 0.00 0.00 0.00 95 847.7
20200530195739 34 265 22.6 28.7 0.00 0.00 0.00 94 847.7
20200530195639 34 286 17.4 22.6 0.00 0.00 0.00 94 847.8
20200530195539 34 275 14.8 20.0 0.00 0.00 0.00 94 847.8
20200530195439 34 284 19.1 24.3 0.00 0.00 0.00 94 847.7
20200530195339 34 269 26.1 32.2 0.00 0.00 0.00 95 847.5
20200530195239 34 260 21.7 24.3 0.00 0.00 0.00 95 847.7
20200530195139 34 269 22.6 25.2 0.00 0.00 0.00 96 847.7
20200530195039 34 278 14.8 21.7 0.00 0.00 0.00 96 847.8
20200530194939 34 292 13.9 19.1 0.00 0.00 0.00 97 847.5
20200530194839 34 284 16.5 25.2 0.00 0.00 0.00 97 847.5
20200530194739 34 273 17.4 25.2 0.00 0.00 0.00 98 847.7
20200530194639 34 281 17.4 22.6 0.00 0.00 0.00 98 847.7
20200530194539 34 275 20.9 29.5 0.00 0.00 0.00 98 847.5
20200530194439 34 271 16.5 26.9 0.00 0.00 0.00 98 847.7
20200530194339 34 291 14.8 21.7 0.00 0.00 0.00 98 847.9
20200530194239 34 277 20.9 24.3 0.00 0.00 0.00 98 847.7
20200530194139 34 279 20.9 23.5 0.00 0.00 0.00 98 847.5
20200530194039 34 273 14.8 20.0 0.00 0.00 0.00 98 847.7
20200530193939 34 274 19.1 23.5 0.00 0.00 0.00 98 847.5
20200530193839 34 272 23.5 26.9 0.00 0.00 0.00 98 847.7
20200530193739 34 282 15.6 22.6 0.00 0.00 0.00 97 847.9
20200530193639 34 266 17.4 20.0 0.00 0.00 0.00 97 848.1
20200530193539 34 272 13.0 18.2 0.00 0.00 0.00 97 848.1
20200530193439 34 274 16.5 22.6 0.00 0.00 0.00 97 848.1
20200530193339 34 273 17.4 23.5 0.00 0.00 0.00 97 847.8
20200530193239 34 276 15.6 20.0 0.00 0.00 0.00 97 848.1
20200530193139 34 274 20.9 25.2 0.00 0.00 0.00 97 847.8
20200530193039 34 278 15.6 20.9 0.00 0.00 0.00 97 848.2
20200530192939 34 269 14.8 20.0 0.00 0.00 0.00 97 848.2
20200530192839 34 268 18.2 23.5 0.00 0.00 0.00 97 848.1
20200530192739 34 274 22.6 25.2 0.00 0.00 0.00 97 847.8
20200530192639 34 271 20.9 23.5 0.00 0.00 0.00 97 848.1
20200530192539 34 266 23.5 26.1 0.00 0.00 0.00 97 847.8
20200530192439 34 273 13.9 16.5 0.00 0.00 0.00 97 848.3
20200530192339 34 270 17.4 25.2 0.00 0.00 0.00 97 848.1
20200530192239 34 269 15.6 20.9 0.00 0.00 0.00 97 848.2
20200530192139 34 272 20.0 26.1 0.00 0.00 0.00 96 847.8
20200530192039 34 261 23.5 26.1 0.00 0.00 0.00 96 847.9
20200530191939 34 274 23.5 25.2 0.00 0.00 0.00 96 848.1
20200530191839 34 284 14.8 22.6 0.00 0.00 0.00 96 847.8
20200530191739 34 267 19.1 21.7 0.00 0.00 0.00 96 848.1
20200530191639 34 281 20.0 23.5 0.00 0.00 0.00 96 848.1
20200530191539 34 277 18.2 25.2 0.00 0.00 0.00 96 848.1
20200530191439 34 277 20.9 25.2 0.00 0.00 0.00 95 847.8
20200530191339 34 284 20.9 26.1 0.00 0.00 0.00 95 848.1
20200530191240 34 276 25.2 29.5 0.00 0.00 0.00 95 847.8
20200530191139 34 284 14.8 19.1 0.00 0.00 0.00 95 848.3
20200530191039 34 286 16.5 20.0 0.00 0.00 0.00 94 848.3
20200530190939 35 285 13.0 15.6 0.00 0.00 0.00 94 848.5
20200530190839 35 260 12.2 14.8 0.00 0.00 0.00 94 848.5
20200530190739 35 286 19.1 21.7 0.00 0.00 0.00 93 848.3
20200530190640 35 273 14.8 17.4 0.00 0.00 0.00 93 848.3
20200530190540 35 289 13.0 19.1 0.00 0.00 0.00 93 848.1
20200530190439 35 270 18.2 24.3 0.00 0.00 0.00 93 848.2
20200530190340 35 288 13.9 16.5 0.00 0.00 0.00 93 848.2
20200530190239 35 262 21.7 24.3 0.00 0.00 0.00 92 848.1
20200530190140 35 264 14.8 20.0 0.00 0.00 0.00 92 848.2
20200530190040 35 267 12.2 14.8 0.00 0.00 0.00 92 848.5
20200530185939 35 250 13.9 14.8 0.00 0.00 0.00 91 848.5
20200530185839 35 247 18.2 20.9 0.00 0.00 0.00 91 848.2
20200530185739 35 251 17.4 19.1 0.00 0.00 0.00 90 848.2
20200530185639 35 250 22.6 25.2 0.00 0.00 0.00 90 848.1
20200530185539 35 246 19.1 23.5 0.00 0.00 0.00 90 848.1
20200530185439 35 281 15.6 24.3 0.00 0.00 0.00 90 847.7
20200530185339 35 241 21.7 25.2 0.00 0.00 0.00 90 847.9
20200530185239 35 252 18.2 20.9 0.00 0.00 0.00 90 848.1
20200530185139 35 228 18.2 23.5 0.00 0.00 0.00 89 848.1
20200530185039 35 245 22.6 25.2 0.00 0.00 0.00 89 848.1
20200530184939 35 274 13.0 20.9 0.00 0.00 0.00 89 848.1
20200530184839 35 223 20.9 26.1 0.00 0.00 0.00 89 847.9
20200530184639 35 253 18.2 19.1 0.00 0.00 0.00 88 848.1
20200530184539 35 246 27.8 29.5 0.00 0.00 0.00 88 847.7
20200530184439 35 213 16.5 20.0 0.00 0.00 0.00 89 848.1
20200530184339 35 249 25.2 26.9 0.00 0.00 0.00 91 847.8
20200530184239 35 226 16.5 20.0 0.00 0.00 0.00 90 848.1
20200530184139 35 254 24.3 26.9 0.00 0.00 0.00 90 847.9
20200530184039 35 249 25.2 27.8 0.00 0.00 0.00 90 847.9
20200530183939 35 242 14.8 19.1 0.00 0.00 0.00 90 848.1
20200530183839 35 217 26.1 31.3 0.00 0.00 0.00 90 847.7
20200530183739 35 227 23.5 26.9 0.00 0.00 0.00 90 847.9
20200530183639 35 236 17.4 22.6 0.00 0.00 0.00 89 848.1
20200530183539 35 242 23.5 26.9 0.00 0.00 0.00 90 847.7
20200530183439 35 242 26.9 29.5 0.00 0.00 0.00 91 847.7
20200530183339 35 253 15.6 18.2 0.00 0.00 0.00 92 848.1
20200530183239 35 258 13.9 16.5 0.00 0.00 0.00 91 848.1
20200530183139 35 259 23.5 27.8 0.00 0.00 0.00 91 847.9
20200530183039 35 257 26.9 28.7 0.00 0.00 0.00 92 847.5
20200530182939 35 244 22.6 25.2 0.00 0.00 0.00 92 847.9
20200530182839 35 236 19.1 24.3 0.00 0.00 0.00 92 848.1
20200530182739 35 222 16.5 21.7 0.00 0.00 0.00 92 848.1
20200530182639 35 242 23.5 31.3 0.00 0.00 0.00 93 847.9
20200530182539 35 268 23.5 31.3 0.00 0.00 0.00 93 847.5
20200530182439 35 231 20.0 21.7 0.00 0.00 0.00 95 848.1
20200530182339 35 248 18.2 20.0 0.00 0.00 0.00 95 848.1
20200530182239 35 247 14.8 16.5 0.00 0.00 0.00 95 848.2
20200530182139 35 261 20.0 23.5 0.00 0.00 0.00 96 847.9
20200530182039 35 259 22.6 24.3 0.00 0.00 0.00 97 847.9
20200530181939 35 253 22.6 26.9 0.00 0.00 0.00 98 847.9
20200530181839 35 234 18.2 20.9 0.00 0.00 0.00 98 848.1
20200530181739 35 258 20.0 23.5 0.00 0.00 0.00 98 847.8
20200530181639 35 285 13.0 18.2 0.00 0.00 0.00 98 848.1
20200530181539 35 255 19.1 20.9 0.00 0.00 0.00 98 848.1
20200530181439 35 249 20.0 20.9 0.00 0.00 0.00 98 848.2
20200530181339 35 264 27.8 31.3 0.00 0.00 0.00 98 847.5
20200530181239 35 250 19.1 20.9 0.00 0.00 0.00 98 848.1
20200530181139 35 249 20.0 23.5 0.00 0.00 0.00 98 848.1
20200530181039 35 236 16.5 19.1 0.00 0.00 0.00 98 848.2
20200530180939 35 262 18.2 19.1 0.00 0.00 0.00 98 848.1
20200530180839 35 247 17.4 20.0 0.00 0.00 0.00 98 848.1
20200530180739 35 256 15.6 17.4 0.00 0.00 0.00 98 848.2
20200530180639 35 241 14.8 14.8 0.00 0.00 0.00 98 848.2
20200530180539 35 261 19.1 21.7 0.00 0.00 0.00 98 848.1
20200530180439 35 260 14.8 18.2 0.00 0.00 0.00 98 848.2
20200530180339 35 257 16.5 20.9 0.00 0.00 0.00 98 848.2
20200530180239 35 262 16.5 18.2 0.00 0.00 0.00 98 848.2
20200530180139 35 263 15.6 20.0 0.00 0.00 0.00 98 848.1
20200530180039 35 246 14.8 15.6 0.00 0.00 0.00 98 848.2
20200530175939 35 256 20.9 22.6 0.00 0.00 0.00 98 847.8
20200530175839 35 265 19.1 24.3 0.00 0.00 0.00 98 847.9
20200530175739 35 250 18.2 20.0 0.00 0.00 0.00 98 848.1
20200530175639 35 277 9.6 14.8 0.00 0.00 0.00 98 848.2
20200530175544 35 261 20.0 24.3 0.00 0.00 0.00 98 848.1
20200530175439 35 267 14.8 20.9 0.00 0.00 0.00 98 847.9
20200530175339 35 257 14.8 18.2 0.00 0.00 0.00 97 848.2
20200530175240 35 257 18.2 20.0 0.00 0.00 0.00 97 848.1
20200530175139 35 251 18.2 20.0 0.00 0.00 0.00 97 848.1
20200530175039 35 291 11.3 17.4 0.00 0.00 0.00 97 848.1
20200530174939 35 241 16.5 18.2 0.00 0.00 0.00 97 848.2
20200530174839 35 264 13.9 18.2 0.00 0.00 0.00 97 848.2
20200530174739 35 285 15.6 20.0 0.00 0.00 0.00 96 848.3
20200530174639 35 268 13.0 14.8 0.00 0.00 0.00 96 848.2
20200530174539 35 265 20.9 22.6 0.00 0.00 0.00 96 848.1
20200530174439 36 262 22.6 24.3 0.00 0.00 0.00 96 848.1
20200530174339 36 268 16.5 19.1 0.00 0.00 0.00 95 848.1
20200530174239 36 269 15.6 20.0 0.00 0.00 0.00 94 848.1
20200530174139 36 265 18.2 22.6 0.00 0.00 0.00 94 847.8
20200530174039 36 264 20.0 26.9 0.00 0.00 0.00 93 847.7
20200530173941 36 273 16.5 22.6 0.00 0.00 0.00 93 847.9
20200530173839 36 273 13.9 21.7 0.00 0.00 0.00 93 847.9
20200530173739 36 274 18.2 20.0 0.00 0.00 0.00 92 847.7
20200530173639 36 259 21.7 23.5 0.00 0.00 0.00 92 847.8
20200530173539 36 281 24.3 32.2 0.00 0.00 0.00 92 847.7
20200530173439 36 270 19.1 26.1 0.00 0.00 0.00 92 847.7
20200530173339 36 269 22.6 25.2 0.00 0.00 0.00 92 847.7
20200530173239 36 262 24.3 27.8 0.00 0.00 0.00 92 847.7
20200530173139 36 279 23.5 29.5 0.00 0.00 0.00 92 847.7
20200530173039 36 245 22.6 23.5 0.00 0.00 0.00 92 847.8
20200530172941 36 281 16.5 22.6 0.00 0.00 0.00 92 847.7
20200530172839 36 252 21.7 23.5 0.00 0.00 0.00 92 847.8
20200530172739 36 261 16.5 18.2 0.00 0.00 0.00 92 848.1
20200530172639 36 285 16.5 20.9 0.00 0.00 0.00 91 847.8
20200530172539 36 267 20.9 25.2 0.00 0.00 0.00 91 847.7
20200530172439 36 272 20.9 22.6 0.00 0.00 0.00 91 847.5
20200530172339 36 270 15.6 21.7 0.00 0.00 0.00 91 847.8
20200530172239 36 269 17.4 25.2 0.00 0.00 0.00 92 847.9
20200530172139 36 274 11.3 15.6 0.00 0.00 0.00 92 847.9
20200530172039 36 262 23.5 26.9 0.00 0.00 0.00 92 847.5
20200530171939 36 274 15.6 23.5 0.00 0.00 0.00 92 847.7
20200530171839 36 269 28.7 33.0 0.00 0.00 0.00 92 847.3
20200530171739 36 265 21.7 25.2 0.00 0.00 0.00 92 847.7
20200530171639 36 277 26.9 28.7 0.00 0.00 0.00 92 847.5
20200530171539 36 272 29.5 33.0 0.00 0.00 0.00 92 847.3
20200530171439 36 269 20.0 22.6 0.00 0.00 0.00 92 847.7
20200530171339 36 272 16.5 20.0 0.00 0.00 0.00 92 847.5
20200530171239 36 287 19.1 27.8 0.00 0.00 0.00 92 847.8
20200530171139 36 287 10.4 12.2 0.00 0.00 0.00 92 848.1
20200530171039 36 262 16.5 24.3 0.00 0.00 0.00 92 847.8
20200530170939 36 267 21.7 25.2 0.00 0.00 0.00 92 847.7
20200530170838 36 271 13.0 21.7 0.00 0.00 0.00 93 847.7
20200530170739 36 270 18.2 22.6 0.00 0.00 0.00 93 847.7
20200530170638 36 272 17.4 20.9 0.00 0.00 0.00 93 847.7
20200530170538 36 237 14.8 21.7 0.00 0.00 0.00 93 847.9
20200530170439 36 283 17.4 20.9 0.00 0.00 0.00 93 847.8
20200530170338 36 292 23.5 28.7 0.00 0.00 0.00 93 847.5
20200530170238 36 272 5.2 10.4 0.00 0.00 0.00 92 847.9
20200530170139 36 291 8.7 15.6 0.00 0.00 0.00 91 848.1
20200530170039 36 322 16.5 21.7 0.00 0.00 0.00 91 847.7
20200530165938 36 304 21.7 25.2 0.00 0.00 0.00 90 847.4
20200530165839 36 318 14.8 15.6 0.00 0.00 0.00 90 847.8
20200530165739 36 284 10.4 13.9 0.00 0.00 0.00 89 847.9
20200530165639 37 272 7.0 9.6 0.00 0.00 0.00 88 848.1
20200530165539 37 252 10.4 13.9 0.00 0.00 0.00 88 847.9
20200530165439 37 266 10.4 13.9 0.00 0.00 0.00 87 848.1
20200530165338 37 270 24.3 28.7 0.00 0.00 0.00 87 847.4
20200530165239 37 279 5.2 7.0 0.00 0.00 0.00 88 848.1
20200530165139 37 260 12.2 13.9 0.00 0.00 0.00 88 847.9
20200530165039 37 329 7.8 8.7 0.00 0.00 0.00 88 848.1
20200530164939 37 331 13.9 15.6 0.00 0.00 0.00 88 847.9
20200530164838 37 298 9.6 12.2 0.00 0.00 0.00 88 848.1
20200530164739 37 275 13.0 16.5 0.00 0.00 0.00 87 848.1
20200530164638 37 292 16.5 20.9 0.00 0.00 0.00 87 847.9
20200530164539 37 353 5.2 7.8 0.00 0.00 0.00 86 848.2
20200530164439 37 288 13.9 16.5 0.00 0.00 0.00 87 848.1
20200530164339 37 265 10.4 13.0 0.00 0.00 0.00 87 848.2
20200530164238 37 268 14.8 20.0 0.00 0.00 0.00 87 848.1
20200530164139 37 267 17.4 20.0 0.00 0.00 0.00 86 848.1
20200530164039 37 275 14.8 16.5 0.00 0.00 0.00 85 848.1
20200530163940 37 272 18.2 20.0 0.00 0.00 0.00 85 847.9
20200530163839 37 262 14.8 17.4 0.00 0.00 0.00 85 848.1
20200530163738 37 297 18.2 23.5 0.00 0.00 0.00 85 847.9
20200530163638 37 245 9.6 11.3 0.00 0.00 0.00 85 848.2
20200530163438 37 263 11.3 13.0 0.00 0.00 0.00 85 848.1
20200530163339 37 260 19.1 21.7 0.00 0.00 0.00 84 847.7
20200530163238 37 268 18.2 22.6 0.00 0.00 0.00 84 847.8
20200530163139 37 275 24.3 27.8 0.00 0.00 0.00 84 847.7
20200530163038 37 261 14.8 20.9 0.00 0.00 0.00 85 847.8
20200530162939 37 269 21.7 27.8 0.00 0.00 0.00 85 847.7
20200530162838 37 260 16.5 20.0 0.00 0.00 0.00 83 847.9
20200530162739 37 271 17.4 21.7 0.00 0.00 0.00 83 847.7
20200530162638 37 277 14.8 19.1 0.00 0.00 0.00 84 847.9
20200530162538 37 276 15.6 21.7 0.00 0.00 0.00 83 847.9
20200530162438 37 279 17.4 25.2 0.00 0.00 0.00 83 847.8
20200530162339 37 260 12.2 13.9 0.00 0.00 0.00 82 847.9
20200530162238 37 274 23.5 25.2 0.00 0.00 0.00 82 847.5
20200530162139 37 288 20.0 23.5 0.00 0.00 0.00 82 847.9
20200530162038 37 276 16.5 25.2 0.00 0.00 0.00 82 847.8
20200530161939 37 295 22.6 27.8 0.00 0.00 0.00 81 847.7
20200530161838 37 296 22.6 25.2 0.00 0.00 0.00 81 847.7
20200530161739 37 282 23.5 26.1 0.00 0.00 0.00 80 847.5
20200530161639 37 285 20.0 27.8 0.00 0.00 0.00 82 847.8
20200530161538 37 274 21.7 24.3 0.00 0.00 0.00 81 847.7
20200530161439 37 260 12.2 16.5 0.00 0.00 0.00 82 847.9
20200530161338 37 277 13.0 15.6 0.00 0.00 0.00 80 847.8
20200530161239 37 284 20.0 26.9 0.00 0.00 0.00 79 847.4
20200530161139 37 267 20.9 23.5 0.00 0.00 0.00 80 847.7
20200530161038 37 281 22.6 26.1 0.00 0.00 0.00 77 847.7
20200530160938 38 276 23.5 26.1 0.00 0.00 0.00 78 847.7
20200530160838 38 271 21.7 26.9 0.00 0.00 0.00 76 847.5
20200530160739 38 283 24.3 30.4 0.00 0.00 0.00 75 847.7
20200530160638 38 274 23.5 29.5 0.00 0.00 0.00 75 847.5
20200530160539 38 271 24.3 29.5 0.00 0.00 0.00 76 847.3
20200530160439 38 277 20.0 26.1 0.00 0.00 0.00 76 847.7
20200530160338 38 278 27.8 29.5 0.00 0.00 0.00 75 847.3
20200530160239 38 278 20.0 24.3 0.00 0.00 0.00 74 847.7
20200530160139 38 280 20.0 23.5 0.00 0.00 0.00 76 847.5
20200530160038 38 286 25.2 28.7 0.00 0.00 0.00 75 847.7
20200530155938 38 280 25.2 27.8 0.00 0.00 0.00 75 847.3
20200530155838 38 269 15.6 18.2 0.00 0.00 0.00 77 847.7
20200530155739 37 278 16.5 19.1 0.00 0.00 0.00 79 847.8
20200530155639 37 277 20.0 23.5 0.00 0.00 0.00 78 847.7
20200530155539 37 267 19.1 21.7 0.00 0.00 0.00 75 847.7
20200530155439 37 287 20.0 25.2 0.00 0.00 0.00 77 847.7
20200530155339 38 264 20.9 24.3 0.00 0.00 0.00 75 847.5
20200530155238 38 264 25.2 28.7 0.00 0.00 0.00 76 847.3
20200530155139 38 280 15.6 18.2 0.00 0.00 0.00 76 847.5
20200530155039 38 260 21.7 26.9 0.00 0.00 0.00 77 847.7
20200530154938 38 276 15.6 20.0 0.00 0.00 0.00 77 847.5
20200530154838 38 282 20.9 24.3 0.00 0.00 0.00 75 847.7
20200530154738 38 271 14.8 22.6 0.00 0.00 0.00 76 847.7
20200530154639 37 286 17.4 21.7 0.00 0.00 0.00 74 847.4
20200530154539 37 277 17.4 25.2 0.00 0.00 0.00 76 847.4
20200530154439 37 282 19.1 22.6 0.00 0.00 0.00 76 847.4
20200530154339 37 272 20.9 24.3 0.00 0.00 0.00 76 847.3
20200530154238 37 259 22.6 26.9 0.00 0.00 0.00 76 847.4
20200530154138 37 279 17.4 20.0 0.00 0.00 0.00 77 847.7
20200530154039 37 268 23.5 25.2 0.00 0.00 0.00 77 847.5
20200530153938 37 276 16.5 23.5 0.00 0.00 0.00 77 847.3
20200530153838 37 274 24.3 27.8 0.00 0.00 0.00 76 847.3
20200530153739 37 276 20.9 26.1 0.00 0.00 0.00 75 847.3
20200530153638 37 274 23.5 26.9 0.00 0.00 0.00 75 847.3
20200530153538 38 266 23.5 26.9 0.00 0.00 0.00 75 847.3
20200530153439 38 282 25.2 30.4 0.00 0.00 0.00 73 847.1
20200530153338 38 280 20.9 29.5 0.00 0.00 0.00 72 847.3
20200530153239 38 268 20.0 23.5 0.00 0.00 0.00 72 847.4
20200530153139 38 283 21.7 25.2 0.00 0.00 0.00 72 847.4
20200530153038 38 279 19.1 26.1 0.00 0.00 0.00 72 847.4
20200530152939 37 270 25.2 28.7 0.00 0.00 0.00 73 847.1
20200530152839 37 269 19.1 21.7 0.00 0.00 0.00 75 847.3
20200530152739 37 284 19.1 20.9 0.00 0.00 0.00 72 847.5
20200530152638 37 277 20.9 22.6 0.00 0.00 0.00 73 847.3
20200530152538 37 279 20.0 26.9 0.00 0.00 0.00 76 847.4
20200530152438 37 287 20.9 24.3 0.00 0.00 0.00 77 847.5
20200530152338 37 272 18.2 22.6 0.00 0.00 0.00 77 847.5
20200530152238 37 280 18.2 22.6 0.00 0.00 0.00 76 847.5
20200530152139 37 276 26.1 29.5 0.00 0.00 0.00 76 847.1
20200530152038 37 280 19.1 25.2 0.00 0.00 0.00 76 847.5
20200530151940 37 268 17.4 23.5 0.00 0.00 0.00 74 847.5
20200530151838 37 270 21.7 25.2 0.00 0.00 0.00 78 847.3
20200530151738 37 274 26.9 29.5 0.00 0.00 0.00 75 847.3
20200530151639 37 284 18.2 22.6 0.00 0.00 0.00 77 847.1
20200530151539 37 263 21.7 29.5 0.00 0.00 0.00 77 847.3
20200530151440 37 276 26.9 30.4 0.00 0.00 0.00 79 847.1
20200530151339 37 275 20.9 25.2 0.00 0.00 0.00 79 847.3
20200530151239 37 284 25.2 28.7 0.00 0.00 0.00 80 847.3
20200530151139 37 279 26.1 30.4 0.00 0.00 0.00 81 847.1
20200530151039 37 284 30.4 33.9 0.00 0.00 0.00 81 847.1
20200530150938 37 273 13.0 17.4 0.00 0.00 0.00 83 847.7
20200530150839 37 276 20.9 26.1 0.00 0.00 0.00 82 847.4
20200530150738 37 286 27.8 30.4 0.00 0.00 0.00 82 847.4
20200530150638 37 291 17.4 25.2 0.00 0.00 0.00 82 847.5
20200530150538 37 276 19.1 26.9 0.00 0.00 0.00 81 847.4
20200530150438 37 280 22.6 29.5 0.00 0.00 0.00 80 847.3
20200530150339 37 279 22.6 24.3 0.00 0.00 0.00 82 847.7
20200530150238 37 285 20.9 28.7 0.00 0.00 0.00 79 847.4
20200530150138 37 263 27.8 33.9 0.00 0.00 0.00 82 846.9
20200530150038 37 274 19.1 24.3 0.00 0.00 0.00 83 847.5
20200530145938 37 269 24.3 28.7 0.00 0.00 0.00 82 847.0
20200530145838 37 282 24.3 27.8 0.00 0.00 0.00 82 847.3
20200530145738 37 280 20.9 25.2 0.00 0.00 0.00 80 847.3
20200530145638 37 272 22.6 27.8 0.00 0.00 0.00 80 847.3
20200530145538 37 287 16.5 20.9 0.00 0.00 0.00 79 847.7
20200530145438 37 269 15.6 20.9 0.00 0.00 0.00 78 847.7
20200530145338 37 276 21.7 26.9 0.00 0.00 0.00 76 847.3
20200530145238 37 282 26.9 32.2 0.00 0.00 0.00 78 847.0
20200530145138 37 262 26.1 29.5 0.00 0.00 0.00 77 847.3
20200530145038 37 269 18.2 21.7 0.00 0.00 0.00 78 847.3
20200530144938 38 280 18.2 24.3 0.00 0.00 0.00 79 847.5
20200530144838 38 281 20.0 29.5 0.00 0.00 0.00 76 847.5
20200530144738 38 281 27.8 29.5 0.00 0.00 0.00 74 847.4
20200530144638 38 270 26.9 31.3 0.00 0.00 0.00 74 847.1
20200530144538 38 272 25.2 32.2 0.00 0.00 0.00 74 846.9
20200530144438 37 285 19.1 20.9 0.00 0.00 0.00 74 847.7
20200530144338 37 282 23.5 29.5 0.00 0.00 0.00 72 847.4
20200530144238 37 279 24.3 27.8 0.00 0.00 0.00 77 847.3
20200530144138 37 270 20.0 23.5 0.00 0.00 0.00 77 847.4
20200530144038 37 288 23.5 26.1 0.00 0.00 0.00 78 847.5
20200530143938 37 282 24.3 30.4 0.00 0.00 0.00 79 847.3
20200530143838 37 271 20.0 24.3 0.00 0.00 0.00 80 847.4
20200530143738 37 278 17.4 20.0 0.00 0.00 0.00 81 847.7
20200530143639 37 259 18.2 20.9 0.00 0.00 0.00 80 847.7
20200530143538 37 282 20.9 27.8 0.00 0.00 0.00 81 847.4
20200530143438 37 264 21.7 24.3 0.00 0.00 0.00 81 847.4
20200530143338 37 277 20.9 24.3 0.00 0.00 0.00 82 847.4
20200530143238 37 277 18.2 23.5 0.00 0.00 0.00 82 847.7
20200530143138 37 277 20.9 26.1 0.00 0.00 0.00 83 847.4
20200530143038 37 263 21.7 25.2 0.00 0.00 0.00 82 847.5
20200530142938 37 278 14.8 18.2 0.00 0.00 0.00 82 847.5
20200530142838 37 272 20.9 26.9 0.00 0.00 0.00 81 847.3
20200530142738 37 286 26.9 30.4 0.00 0.00 0.00 81 847.4
20200530142638 36 283 25.2 30.4 0.00 0.00 0.00 81 847.3
20200530142538 36 284 21.7 26.9 0.00 0.00 0.00 82 847.5
20200530142438 36 275 23.5 25.2 0.00 0.00 0.00 84 847.5
20200530142338 36 274 14.8 20.0 0.00 0.00 0.00 83 847.3
20200530142238 36 286 11.3 16.5 0.00 0.00 0.00 84 847.8
20200530142138 36 281 26.9 30.4 0.00 0.00 0.00 84 847.3
20200530142038 36 256 18.2 23.5 0.00 0.00 0.00 84 847.5
20200530141938 36 279 18.2 21.7 0.00 0.00 0.00 84 847.4
20200530141838 36 278 16.5 22.6 0.00 0.00 0.00 83 847.7
20200530141739 36 275 17.4 23.5 0.00 0.00 0.00 83 847.8
20200530141638 36 261 23.5 24.3 0.00 0.00 0.00 84 847.5
20200530141539 36 271 17.4 26.9 0.00 0.00 0.00 83 847.7
20200530141438 36 281 23.5 31.3 0.00 0.00 0.00 82 847.3
20200530141338 36 269 23.5 28.7 0.00 0.00 0.00 82 847.4
20200530141238 36 271 25.2 30.4 0.00 0.00 0.00 84 847.3
20200530141138 36 282 28.7 34.8 0.00 0.00 0.00 85 846.9
20200530141039 37 271 26.1 29.5 0.00 0.00 0.00 84 847.3
20200530140938 37 279 22.6 29.5 0.00 0.00 0.00 81 847.1
20200530140838 37 284 28.7 32.2 0.00 0.00 0.00 80 847.1
20200530140738 37 282 23.5 26.9 0.00 0.00 0.00 79 847.4
20200530140638 37 271 23.5 25.2 0.00 0.00 0.00 75 847.3
20200530140538 37 285 23.5 30.4 0.00 0.00 0.00 77 847.5
20200530140438 37 283 26.1 33.0 0.00 0.00 0.00 78 847.1
20200530140338 37 276 26.1 28.7 0.00 0.00 0.00 78 847.3
20200530140238 37 278 26.1 32.2 0.00 0.00 0.00 74 847.1
20200530140138 37 282 21.7 27.8 0.00 0.00 0.00 78 847.3
20200530140038 37 283 21.7 24.3 0.00 0.00 0.00 77 847.5
20200530135938 37 266 17.4 26.1 0.00 0.00 0.00 77 847.5
20200530135838 37 276 25.2 26.9 0.00 0.00 0.00 79 847.4
20200530135738 37 271 25.2 27.8 0.00 0.00 0.00 79 847.4
20200530135638 37 280 21.7 24.3 0.00 0.00 0.00 78 847.5
20200530135538 37 276 17.4 19.1 0.00 0.00 0.00 80 847.7
20200530135438 36 280 12.2 14.8 0.00 0.00 0.00 81 847.7
20200530135338 36 257 16.5 20.0 0.00 0.00 0.00 83 847.7
20200530135238 36 270 18.2 23.5 0.00 0.00 0.00 86 847.7
20200530135140 36 265 16.5 23.5 0.00 0.00 0.00 85 847.7
20200530135038 36 275 20.9 25.2 0.00 0.00 0.00 86 847.5
20200530134938 36 288 21.7 25.2 0.00 0.00 0.00 87 847.8
20200530134838 37 285 20.9 22.6 0.00 0.00 0.00 86 847.8
20200530134738 37 283 20.0 23.5 0.00 0.00 0.00 85 847.9
20200530134638 37 267 20.0 22.6 0.00 0.00 0.00 88 847.4
20200530134538 37 278 13.0 16.5 0.00 0.00 0.00 87 847.9
20200530134438 37 283 10.4 19.1 0.00 0.00 0.00 87 848.1
20200530134338 37 270 11.3 14.8 0.00 0.00 0.00 87 848.1
20200530134238 37 251 16.5 17.4 0.00 0.00 0.00 86 847.9
20200530134138 37 263 20.0 24.3 0.00 0.00 0.00 86 847.7
20200530134038 37 280 13.0 20.9 0.00 0.00 0.00 85 847.8
20200530133938 37 281 20.0 25.2 0.00 0.00 0.00 84 847.7
20200530133838 37 269 13.0 18.2 0.00 0.00 0.00 84 847.9
20200530133738 37 280 24.3 28.7 0.00 0.00 0.00 84 847.4
20200530133638 36 273 14.8 19.1 0.00 0.00 0.00 86 847.9
20200530133538 36 278 15.6 22.6 0.00 0.00 0.00 87 847.8
20200530133438 36 291 16.5 22.6 0.00 0.00 0.00 88 847.8
20200530133338 36 284 15.6 19.1 0.00 0.00 0.00 88 848.1
20200530133238 36 286 20.9 25.2 0.00 0.00 0.00 87 847.9
20200530133138 36 273 17.4 19.1 0.00 0.00 0.00 87 847.9
20200530133038 36 280 24.3 26.9 0.00 0.00 0.00 86 847.7
20200530132938 36 286 22.6 26.1 0.00 0.00 0.00 85 847.7
20200530132838 36 270 17.4 25.2 0.00 0.00 0.00 86 847.4
20200530132738 36 272 15.6 19.1 0.00 0.00 0.00 86 847.8
20200530132638 36 276 20.0 25.2 0.00 0.00 0.00 84 847.5
20200530132538 36 278 24.3 26.1 0.00 0.00 0.00 85 847.3
20200530132438 36 272 26.9 31.3 0.00 0.00 0.00 87 847.3
20200530132338 36 293 18.2 22.6 0.00 0.00 0.00 88 847.7
20200530132238 36 277 18.2 23.5 0.00 0.00 0.00 90 847.8
20200530132138 36 266 22.6 25.2 0.00 0.00 0.00 91 847.7
20200530132038 36 281 14.8 18.2 0.00 0.00 0.00 93 847.9
20200530131938 36 276 14.8 17.4 0.00 0.00 0.00 93 847.9
20200530131838 36 290 16.5 20.0 0.00 0.00 0.00 94 848.1
20200530131738 36 263 16.5 17.4 0.00 0.00 0.00 94 847.9
20200530131640 36 273 13.9 18.2 0.00 0.00 0.00 94 848.1
20200530131538 36 251 11.3 13.9 0.00 0.00 0.00 93 848.1
20200530131439 36 280 15.6 18.2 0.00 0.00 0.00 93 847.8
20200530131229 36 280 16.5 22.6 0.00 0.00 0.00 94 847.8
20200530131129 36 260 18.2 21.7 0.00 0.00 0.00 94 847.8
20200530131029 37 273 13.0 19.1 0.00 0.00 0.00 94 847.9
20200530130929 37 278 15.6 20.0 0.00 0.00 0.00 94 847.9
20200530130829 37 283 16.5 20.9 0.00 0.00 0.00 94 847.8
20200530130729 37 282 26.1 28.7 0.00 0.00 0.00 93 847.5
20200530130628 37 276 12.2 18.2 0.00 0.00 0.00 94 847.9
20200530130529 37 268 16.5 20.0 0.00 0.00 0.00 93 847.8
20200530130428 37 275 14.8 16.5 0.00 0.00 0.00 93 847.9
20200530130329 37 280 17.4 24.3 0.00 0.00 0.00 92 847.7
20200530130228 37 292 17.4 20.9 0.00 0.00 0.00 91 847.9
20200530130129 37 289 14.8 17.4 0.00 0.00 0.00 91 848.1
20200530130029 38 280 19.1 24.3 0.00 0.00 0.00 91 847.9
20200530125929 38 295 12.2 15.6 0.00 0.00 0.00 92 848.1
20200530125829 38 279 13.9 15.6 0.00 0.00 0.00 91 848.1
20200530125729 38 319 9.6 15.6 0.00 0.00 0.00 92 848.1
20200530125634 38 258 7.8 9.6 0.00 0.00 0.00 91 848.1
20200530125627 38 262 9.6 12.2 0.00 0.00 0.00 91 848.1
20200530125534 38 262 9.6 13.9 0.00 0.00 0.00 91 848.1
20200530125527 38 251 7.0 8.7 0.00 0.00 0.00 91 848.1
20200530125434 38 276 11.3 15.6 0.00 0.00 0.00 91 848.1
20200530125427 38 274 10.4 16.5 0.00 0.00 0.00 91 848.1
20200530125334 38 282 16.5 17.4 0.00 0.00 0.00 92 847.9
20200530125327 38 285 16.5 18.2 0.00 0.00 0.00 92 847.9
20200530125234 38 272 10.4 13.0 0.00 0.00 0.00 91 847.9
20200530125227 38 283 9.6 13.0 0.00 0.00 0.00 91 848.1
20200530125134 38 267 10.4 14.8 0.00 0.00 0.00 92 847.9
20200530125127 38 266 9.6 10.4 0.00 0.00 0.00 92 848.1
20200530125035 38 275 10.4 12.2 0.00 0.00 0.00 91 848.1
20200530125027 38 278 10.4 11.3 0.00 0.00 0.00 92 848.1
20200530124935 38 257 10.4 13.0 0.00 0.00 0.00 92 848.1
20200530124928 38 265 8.7 12.2 0.00 0.00 0.00 92 848.1
20200530124705 38 295 5.2 7.8 0.00 0.00 0.00 93 848.1
20200530124605 37 265 11.3 14.8 0.00 0.00 0.00 93 847.9
20200530124505 37 263 9.6 13.9 0.00 0.00 0.00 91 848.1
20200530124405 37 260 11.3 15.6 0.00 0.00 0.00 91 848.1
20200530124305 38 277 22.6 25.2 0.00 0.00 0.00 91 847.7
20200530124205 38 274 16.5 19.1 0.00 0.00 0.00 92 847.8
20200530124105 38 267 11.3 13.9 0.00 0.00 0.00 91 847.9
20200530124005 38 257 15.6 20.0 0.00 0.00 0.00 90 847.9
20200530123905 39 275 17.4 20.0 0.00 0.00 0.00 91 847.7
20200530123805 39 284 7.0 11.3 0.00 0.00 0.00 90 848.1
20200530123705 39 325 12.2 13.9 0.00 0.00 0.00 89 848.1
20200530123605 39 273 7.0 7.8 0.00 0.00 0.00 82 848.1
20200530123506 39 284 17.4 20.9 0.00 0.00 0.00 91 847.9
20200530090316 34 292 9.6 15.6 0.00 0.11 0.00 10 848.3
20200530090216 34 285 14.8 18.2 0.00 0.11 0.00 10 848.2
20200530090115 34 263 11.3 14.8 0.00 0.11 0.00 10 848.2
20200530090015 34 282 16.5 20.0 0.00 0.11 0.00 10 848.2
20200530085916 34 277 17.4 20.0 0.00 0.11 0.00 10 848.1
20200530085815 34 257 15.6 17.4 0.00 0.11 0.00 10 848.2
20200530085716 34 251 18.2 19.1 0.00 0.11 0.00 10 848.1
20200530085615 34 267 13.9 16.5 0.00 0.11 0.00 10 848.2
20200530085515 34 261 14.8 17.4 0.00 0.11 0.00 10 848.2
20200530085416 34 286 18.2 22.6 0.00 0.11 0.00 10 848.2
20200530085315 34 273 20.9 24.3 0.00 0.11 0.00 10 847.9
20200530085216 34 285 14.8 16.5 0.00 0.11 0.00 10 848.2
20200530085116 34 274 17.4 21.7 0.00 0.11 0.00 10 847.8
20200530085016 34 272 9.6 15.6 0.00 0.11 0.00 10 848.3
20200530084915 34 270 13.9 20.0 0.00 0.11 0.00 10 847.9
20200530084815 34 292 23.5 26.9 0.00 0.11 0.00 10 847.9
20200530084715 34 273 20.0 25.2 0.00 0.11 0.00 10 847.7
20200530084615 34 289 13.9 15.6 0.00 0.11 0.00 10 848.2
20200530084515 34 273 18.2 21.7 0.00 0.11 0.00 10 847.9
20200530084415 34 280 17.4 20.0 0.00 0.11 0.00 10 848.1
20200530084316 34 280 17.4 22.6 0.00 0.11 0.00 10 848.2
20200530084215 34 273 18.2 20.0 0.00 0.11 0.00 10 848.1
20200530084115 34 284 13.9 20.0 0.00 0.11 0.00 10 848.2
20200530084016 34 276 27.8 29.5 0.00 0.11 0.00 10 847.7
20200530083915 34 286 16.5 19.1 0.00 0.11 0.00 10 848.2
20200530083815 34 263 14.8 15.6 0.00 0.11 0.00 10 848.2
20200530083715 34 311 9.6 11.3 0.00 0.11 0.00 10 848.3
20200530083615 34 261 8.7 11.3 0.00 0.11 0.00 10 848.5
20200530083515 34 259 7.0 12.2 0.00 0.11 0.00 10 848.3
20200530083415 34 248 15.6 20.0 0.00 0.11 0.00 10 848.1
20200530083315 34 325 12.2 18.2 0.00 0.11 0.00 10 848.2
20200530083215 34 285 21.7 23.5 0.00 0.11 0.00 10 847.9
20200530083115 34 285 16.5 20.0 0.00 0.11 0.00 10 848.1
20200530083015 34 252 17.4 20.0 0.00 0.11 0.00 10 848.1
20200530082915 34 259 17.4 19.1 0.00 0.11 0.00 10 847.9
20200530082815 33 265 21.7 25.2 0.00 0.11 0.00 10 847.7
20200530082715 33 253 17.4 20.0 0.00 0.11 0.00 10 848.1
20200530082615 34 286 16.5 23.5 0.00 0.11 0.00 10 847.9
20200530082515 34 276 19.1 23.5 0.00 0.11 0.00 10 847.8
20200530082415 34 245 26.9 28.7 0.00 0.11 0.00 10 847.7
20200530082315 34 262 21.7 26.1 0.00 0.11 0.00 10 847.8
20200530082216 34 275 19.1 22.6 0.00 0.11 0.00 10 847.9
20200530082116 34 288 20.9 25.2 0.00 0.11 0.00 10 847.8
20200530082016 34 253 19.1 20.9 0.00 0.11 0.00 10 848.1
20200530081915 34 270 23.5 26.9 0.00 0.11 0.00 10 847.7
20200530081715 34 276 16.5 25.2 0.00 0.11 0.00 10 847.8
20200530081615 34 277 16.5 18.2 0.00 0.11 0.00 10 847.7
20200530081515 34 270 13.0 16.5 0.00 0.11 0.00 10 847.9
20200530081415 34 255 15.6 17.4 0.00 0.11 0.00 10 848.1
20200530081331 34 260 25.2 29.5 0.00 0.11 0.00 10 847.5
20200530081115 34 274 17.4 21.7 0.00 0.11 0.00 10 847.9
20200530081015 34 284 22.6 28.7 0.00 0.11 0.00 10 847.5
20200530080915 34 262 20.0 23.5 0.00 0.11 0.00 10 847.8
20200530080815 34 262 13.9 17.4 0.00 0.11 0.00 10 848.1
20200530080716 34 267 22.6 27.8 0.00 0.11 0.00 10 847.5
20200530080615 34 258 20.9 24.3 0.00 0.11 0.00 10 847.8
20200530080516 34 272 20.9 26.1 0.00 0.11 0.00 10 847.4
20200530080415 34 264 23.5 27.8 0.00 0.11 0.00 10 847.5
20200530080315 34 260 14.8 20.9 0.00 0.11 0.00 10 847.8
20200530080215 34 284 12.2 18.2 0.00 0.11 0.00 10 848.1
20200530080116 34 265 6.1 8.7 0.00 0.11 0.00 10 848.1
20200530080016 34 276 11.3 15.6 0.00 0.11 0.00 10 847.7
20200530075915 34 282 19.1 23.5 0.00 0.11 0.00 10 847.7
20200530075815 34 257 20.9 24.3 0.00 0.11 0.00 10 847.7
20200530075715 34 262 24.3 27.8 0.00 0.11 0.00 10 847.4
20200530075615 34 266 12.2 17.4 0.00 0.11 0.00 10 847.9
20200530075515 34 249 15.6 17.4 0.00 0.11 0.00 10 847.9
20200530075415 34 258 18.2 21.7 0.00 0.11 0.00 10 847.8
20200530075315 35 256 19.1 21.7 0.00 0.11 0.00 10 847.7
20200530075215 34 265 18.2 21.7 0.00 0.11 0.00 10 847.8
20200530075115 34 277 13.9 20.0 0.00 0.11 0.00 10 847.7
20200530075015 34 255 14.8 16.5 0.00 0.11 0.00 10 847.9
20200530074915 34 267 16.5 19.1 0.00 0.11 0.00 10 847.8
20200530074815 34 262 11.3 13.9 0.00 0.11 0.00 10 848.1
20200530074715 34 282 13.9 20.0 0.00 0.11 0.00 10 847.7
20200530074615 34 283 14.8 22.6 0.00 0.11 0.00 10 847.9
20200530074515 34 291 20.9 25.2 0.00 0.11 0.00 10 847.7
20200530074415 34 282 12.2 14.8 0.00 0.11 0.00 10 847.8
20200530074315 34 290 13.9 17.4 0.00 0.11 0.00 10 847.9
20200530074215 34 275 20.9 23.5 0.00 0.11 0.00 10 847.7
20200530074116 34 277 13.0 22.6 0.00 0.11 0.00 10 847.7
20200530074015 34 277 17.4 23.5 0.00 0.11 0.00 10 847.5
20200530073915 34 284 19.1 22.6 0.00 0.11 0.00 10 847.8
20200530073815 34 265 22.6 25.2 0.00 0.11 0.00 10 847.4
20200530073715 34 284 14.8 19.1 0.00 0.11 0.00 10 847.7
20200530073615 34 284 18.2 22.6 0.00 0.11 0.00 10 847.4
20200530073515 34 277 18.2 21.7 0.00 0.11 0.00 10 847.5
20200530073415 34 269 17.4 22.6 0.00 0.11 0.00 10 847.7
20200530073315 34 263 25.2 27.8 0.00 0.11 0.00 10 847.3
20200530073215 34 273 23.5 30.4 0.00 0.11 0.00 10 847.4
20200530073115 34 262 22.6 26.9 0.00 0.11 0.00 10 847.3
20200530073015 34 276 19.1 23.5 0.00 0.11 0.00 10 847.4
20200530072915 34 259 15.6 18.2 0.00 0.11 0.00 10 847.8
20200530072815 34 279 20.0 26.9 0.00 0.11 0.00 10 847.4
20200530072715 34 266 20.9 26.1 0.00 0.11 0.00 10 847.5
20200530072615 34 278 19.1 24.3 0.00 0.11 0.00 10 847.4
20200530072515 34 263 21.7 24.3 0.00 0.11 0.00 10 847.7
20200530072415 34 267 12.2 17.4 0.00 0.11 0.00 10 847.9
20200530072315 34 270 20.9 23.5 0.00 0.11 0.00 10 847.7
20200530072215 34 282 17.4 24.3 0.00 0.11 0.00 10 847.7
20200530072115 34 261 16.5 20.0 0.00 0.11 0.00 10 847.9
20200530072015 34 267 20.9 25.2 0.00 0.11 0.00 10 847.3
20200530071915 34 270 22.6 26.9 0.00 0.11 0.00 10 847.4
20200530071815 34 261 17.4 21.7 0.00 0.11 0.00 10 847.7
20200530071715 34 279 13.9 19.1 0.00 0.11 0.00 10 847.9
20200530071615 34 269 25.2 26.9 0.00 0.11 0.00 10 847.3
20200530071515 34 266 13.9 14.8 0.00 0.11 0.00 10 847.9
20200530071415 34 270 19.1 23.5 0.00 0.11 0.00 10 847.7
20200530071315 34 265 20.0 24.3 0.00 0.11 0.00 10 847.7
20200530071215 34 276 15.6 20.0 0.00 0.11 0.00 10 847.7
20200530071115 34 282 18.2 20.9 0.00 0.11 0.00 10 847.7
20200530071015 34 274 17.4 21.7 0.00 0.11 0.00 10 847.7
20200530070915 34 269 13.9 19.1 0.00 0.11 0.00 10 847.7
20200530070816 34 260 13.9 16.5 0.00 0.11 0.00 10 847.8
20200530070717 34 287 19.1 20.9 0.00 0.11 0.00 10 847.7
20200530070616 34 287 22.6 26.9 0.00 0.11 0.00 10 847.7
20200530070515 34 264 16.5 21.7 0.00 0.11 0.00 10 847.4
20200530070415 34 265 13.9 17.4 0.00 0.11 0.00 10 847.8
20200530070317 34 279 17.4 19.1 0.00 0.11 0.00 10 847.7
20200530070215 34 265 20.9 23.5 0.00 0.11 0.00 10 847.5
20200530070115 34 276 13.9 17.4 0.00 0.11 0.00 10 847.7
20200530070015 34 261 23.5 25.2 0.00 0.11 0.00 10 847.3
20200530065916 33 282 11.3 14.8 0.00 0.11 0.00 10 847.9
20200530065815 33 266 17.4 19.1 0.00 0.11 0.00 10 847.8
20200530065715 33 269 14.8 16.5 0.00 0.11 0.00 10 847.7
20200530065615 33 260 14.8 15.6 0.00 0.11 0.00 10 847.9
20200530065515 33 276 8.7 13.9 0.00 0.11 0.00 10 847.9
20200530065415 33 261 17.4 20.0 0.00 0.11 0.00 10 847.7
20200530065316 33 273 19.1 22.6 0.00 0.11 0.00 10 847.7
20200530065215 33 262 17.4 21.7 0.00 0.11 0.00 10 847.7
20200530065115 33 275 12.2 17.4 0.00 0.11 0.00 10 847.7
20200530065016 33 241 15.6 18.2 0.00 0.11 0.00 10 847.9